GFSFLT1_850_thetae_000.txt.gz
Theta_e
325 324 324 326 326 326 327 330 323 322 323 323 321 320 318 318 317 317 316 316 316 313 312 312 314 314 314 315 316 315 312 312
328 327 325 325 325 325 326 328 322 322 323 320 318 317 316 316 316 315 313 313 313 312 311 312 312 311 311 311 310 309 310 311
323 324 325 325 326 326 326 324 320 318 317 317 316 315 314 314 314 312 312 312 312 312 310 309 309 309 309 308 310 310 309 308
322 323 324 324 323 321 320 319 318 316 315 314 313 313 313 313 313 313 312 312 311 308 307 307 307 307 306 302 304 306 308 308
320 321 321 320 319 318 317 316 314 313 313 313 313 313 313 314 314 313 310 310 308 307 306 305 305 305 304 304 305 305 304 305
319 319 319 319 318 317 316 315 314 313 313 313 313 313 313 310 309 308 307 307 306 305 304 304 303 303 302 303 304 303 304 305
319 318 318 318 317 316 315 313 313 313 313 313 312 309 308 308 308 307 306 306 304 302 302 302 302 302 302 302 303 304 303 303
319 318 318 317 316 316 316 316 315 313 312 311 310 309 308 307 306 305 305 301 301 301 301 301 301 301 301 301 301 300 300 300
318 318 317 317 316 316 316 315 314 313 312 311 310 308 307 305 304 304 301 301 300 300 300 300 300 299 299 298 298 298 298 297
317 317 317 317 316 315 315 314 314 313 312 311 308 306 305 304 303 300 300 300 300 300 299 299 299 298 298 297 297 297 297 296
318 317 316 316 315 315 315 314 314 313 310 308 307 306 304 303 301 300 300 300 299 297 298 297 297 297 297 296 296 295 295 294
317 316 315 315 314 314 314 313 312 311 309 308 305 303 302 302 301 301 300 299 296 296 295 293 293 294 293 293 292 291 291 292
315 314 314 313 312 312 312 311 310 309 307 305 303 302 301 300 300 300 298 296 296 295 294 294 293 292 292 291 291 291 291 291
314 313 313 311 310 309 308 308 308 307 306 304 303 301 300 299 298 296 295 294 294 293 292 291 290 289 289 289 289 290 290 289
313 312 311 309 307 306 306 305 305 305 305 303 302 301 298 297 296 295 294 293 292 291 290 289 289 289 289 289 289 288 288 287
311 310 309 307 305 304 303 302 303 304 304 303 301 300 298 296 296 294 293 291 290 289 289 289 289 289 289 288 288 287 287 286
309 308 305 304 303 301 300 300 300 302 302 301 301 300 298 296 295 293 292 290 290 289 289 289 289 289 288 288 287 286 286 285
306 305 304 302 300 299 298 298 298 300 300 300 300 299 297 296 295 293 292 290 289 289 289 289 288 288 287 287 286 285 283 282
304 302 301 300 299 298 297 296 296 297 297 298 298 298 296 295 295 293 291 290 289 289 289 289 288 287 287 285 284 283 282 280

GFSFLT1_850_thetae_003.txt.gz
Theta_e
326 326 325 325 325 326 330 329 325 322 322 324 322 320 319 318 317 316 315 314 313 312 312 312 312 311 311 312 312 312 311 310
324 324 325 324 324 328 326 323 321 322 323 323 321 319 316 315 314 313 313 313 312 313 312 311 309 309 309 309 309 309 309 308
324 324 325 325 325 326 325 323 322 321 320 319 318 316 314 312 312 312 312 313 313 312 311 309 308 308 308 308 307 305 305 305
322 324 322 321 322 322 321 321 319 318 316 314 313 312 312 312 313 313 311 309 309 309 308 307 306 306 306 306 305 304 303 303
320 319 319 320 318 318 318 317 316 313 312 313 312 313 313 313 313 310 308 308 308 308 306 305 304 304 304 304 302 302 303 304
319 319 318 317 316 315 314 314 313 313 312 312 312 311 309 307 307 307 307 307 307 306 304 302 301 301 300 300 301 302 303 304
318 318 318 317 316 315 315 315 314 313 312 311 310 309 308 307 307 307 306 306 305 302 300 300 301 301 301 301 301 301 301 301
318 318 317 317 316 316 316 315 315 314 312 310 309 308 307 307 306 305 304 302 300 300 299 300 300 300 300 300 299 299 298 298
318 317 317 316 316 316 315 315 314 313 312 311 310 308 306 304 305 305 302 300 301 300 300 300 299 299 299 298 298 297 298 297
317 317 317 316 315 315 315 314 314 314 312 311 308 306 305 307 304 302 301 302 301 300 300 298 299 298 296 295 294 293 292 293
317 316 315 314 314 313 314 314 313 312 311 309 308 307 306 304 302 302 302 301 301 297 294 294 293 293 292 291 291 290 289 290
315 314 313 312 312 311 310 310 310 310 309 307 306 306 304 302 302 301 301 300 298 294 293 293 292 291 290 289 289 289 289 289
314 313 313 312 310 310 308 307 307 305 305 304 305 305 303 302 301 301 299 296 295 293 293 291 290 289 289 289 289 289 289 289
313 313 310 309 308 307 305 304 303 302 302 304 305 304 303 301 300 298 296 295 294 292 290 290 289 289 289 289 289 288 288 288
311 309 308 307 305 303 302 300 299 299 298 303 302 301 302 300 297 296 294 294 292 290 289 289 288 289 289 288 288 288 288 287
308 306 305 304 301 300 299 298 298 297 297 297 299 301 301 298 299 296 295 294 290 289 289 288 289 289 289 289 288 288 287 286
306 305 304 301 300 299 298 297 296 296 295 295 296 297 299 299 298 297 293 292 290 290 289 289 289 289 289 288 288 287 286 284
303 303 301 300 298 297 296 296 295 294 294 294 296 297 297 296 295 294 293 293 290 289 289 289 289 289 288 287 286 284 284 284
302 300 299 298 296 296 295 295 294 294 293 294 294 295 295 295 294 294 293 292 290 289 289 289 289 288 287 285 284 284 284 283

GFSFLT1_850_thetae_009.txt.gz
Theta_e
326 327 327 326 324 329 329 327 327 326 324 324 323 321 321 320 316 315 314 313 312 312 312 312 309 310 310 309 308 307 306 306
325 326 325 325 326 328 328 328 326 324 324 323 322 322 316 314 312 312 312 312 312 312 310 308 308 308 307 305 305 304 303 303
327 326 325 328 329 328 325 325 324 322 321 321 319 317 313 312 312 312 312 311 310 309 308 307 307 306 304 302 301 300 298 297
323 324 325 325 324 321 318 319 321 321 321 317 312 312 312 312 312 311 310 309 308 307 306 305 304 303 301 300 298 296 296 296
320 320 319 318 316 315 314 313 313 313 313 312 312 312 312 311 311 310 308 307 306 306 303 303 303 300 299 297 295 294 295 296
317 316 316 316 315 315 315 314 315 315 314 313 312 312 311 310 308 307 306 305 304 304 304 305 302 298 298 298 298 293 296 297
317 317 316 316 315 315 315 315 315 314 314 313 312 311 309 308 307 306 305 305 305 305 304 301 300 299 299 299 296 294 295 295
317 317 316 316 315 315 315 315 314 314 314 313 313 310 308 307 306 305 303 302 302 301 301 301 300 299 294 292 292 291 291 290
317 316 316 315 315 314 314 314 313 312 311 308 307 306 303 302 303 303 303 301 302 301 300 298 294 292 291 290 289 289 289 288
316 316 314 314 313 313 312 310 308 306 304 303 302 300 300 303 304 303 302 301 301 300 297 296 295 292 289 288 288 288 288 288
314 313 312 311 312 310 307 305 305 304 302 300 299 299 302 301 302 301 301 301 301 300 299 296 292 292 289 288 288 288 288 288
311 311 311 310 308 306 304 303 302 301 299 298 297 297 296 295 294 296 300 300 299 298 297 293 293 291 289 288 287 288 288 288
310 310 308 306 304 303 302 302 301 300 299 298 297 295 294 292 293 297 299 298 299 297 296 295 290 289 289 288 288 288 288 288
309 307 305 304 302 302 302 301 300 299 297 296 295 294 293 292 291 293 296 295 295 296 295 292 290 289 288 288 288 288 288 288
305 304 304 303 302 301 300 299 298 297 296 296 295 293 292 292 291 292 294 294 296 293 292 290 289 289 288 288 288 288 288 287
304 304 303 301 300 300 299 298 297 296 296 295 294 293 292 292 291 291 293 295 295 293 291 289 290 288 288 288 288 288 287 285
303 303 303 301 299 298 297 297 296 296 295 294 293 292 292 292 291 292 293 294 294 291 291 290 289 288 288 288 287 286 285 284
302 302 300 299 298 297 296 296 296 295 294 294 293 292 292 292 291 291 293 293 293 292 291 289 288 288 288 287 286 284 283 282
301 300 299 299 297 296 295 295 295 294 294 293 292 292 292 292 291 292 292 292 292 292 289 288 288 288 287 285 284 282 281 280

GFSFLT1_850_thetae_012.txt.gz
Theta_e
326 326 326 325 323 326 328 327 325 326 324 324 323 320 318 319 319 316 314 313 312 313 313 310 308 308 307 307 307 306 304 302
325 326 326 325 324 326 326 326 326 325 323 320 320 320 318 315 312 312 312 312 311 310 309 308 308 307 306 305 303 302 302 301
325 328 329 329 328 326 324 324 323 321 321 321 317 313 312 312 311 311 312 310 310 309 308 308 306 304 303 303 303 300 297 295
327 327 326 323 320 319 318 318 317 317 314 311 313 312 312 311 311 311 310 310 309 307 307 306 305 305 304 303 300 297 297 295
322 321 317 315 314 313 313 313 313 314 314 314 313 313 313 312 311 310 309 308 306 305 305 305 304 305 301 299 298 297 297 294
317 316 315 314 314 315 314 314 314 314 314 314 313 313 312 310 309 308 307 305 304 302 300 302 301 301 299 298 298 297 293 292
316 316 315 315 315 315 315 315 314 314 313 313 312 311 309 307 305 304 305 302 302 300 301 301 300 299 295 293 292 290 290 289
316 315 316 315 315 315 314 314 314 313 312 312 309 307 304 302 301 302 303 302 301 300 301 302 300 296 294 292 291 290 288 288
315 315 315 315 315 314 313 313 312 310 308 306 304 302 300 300 299 297 298 299 300 301 300 300 299 297 297 293 289 288 288 288
315 314 314 313 313 312 311 309 307 304 301 299 298 297 297 296 296 295 294 294 297 300 300 299 297 298 294 291 288 288 288 287
313 312 312 312 311 310 307 306 303 302 300 300 299 297 296 295 294 293 292 291 299 299 298 298 297 295 293 290 289 288 288 288
311 311 311 311 311 311 310 304 303 301 299 298 297 295 295 293 292 292 291 293 298 298 297 296 295 294 290 289 288 288 288 288
310 310 310 309 308 304 304 302 301 299 298 296 296 295 294 292 291 291 290 291 296 296 295 294 294 294 289 288 288 288 288 288
310 309 308 305 304 303 302 301 299 298 297 296 295 294 293 292 291 290 290 290 294 294 293 294 293 290 288 289 288 288 288 288
309 306 304 303 302 304 302 299 298 297 296 295 295 294 293 291 291 291 290 291 293 293 294 292 292 289 289 289 288 288 288 287
306 305 304 303 304 302 299 298 297 296 295 295 294 293 292 291 291 291 290 292 292 293 293 291 289 290 289 288 288 288 287 286
305 304 304 302 301 300 299 297 296 295 295 294 294 293 291 291 291 291 291 292 292 291 292 291 291 289 288 288 288 287 286 284
304 303 301 301 300 299 297 296 295 295 295 294 293 291 292 291 291 291 291 292 292 291 291 291 290 288 288 288 287 286 283 281
303 301 301 300 299 297 296 295 295 295 294 293 292 292 292 291 290 290 290 291 291 291 291 289 288 288 288 287 286 283 282 281

GFSFLT1_850_thetae_015.txt.gz
Theta_e
324 323 323 323 323 323 327 327 327 326 325 324 324 322 318 320 320 317 314 313 312 312 310 309 309 309 308 307 305 304 303 303
325 325 326 326 325 324 326 326 326 324 324 323 321 320 319 313 312 312 311 312 312 309 309 308 308 307 306 305 305 305 304 302
325 326 326 327 326 325 326 323 323 321 321 320 313 311 312 311 311 312 311 311 310 309 308 306 305 304 304 304 303 300 298 297
329 326 323 320 320 320 320 318 318 318 313 312 313 312 312 312 312 311 311 309 307 306 305 304 301 301 301 301 299 298 299 298
322 318 317 316 314 313 313 313 313 313 314 313 313 313 313 312 311 309 307 306 305 303 301 300 299 301 300 299 299 298 295 294
317 315 314 313 313 313 313 314 314 314 313 313 313 312 311 310 307 305 304 305 304 301 299 297 298 301 300 299 296 296 293 291
314 314 313 314 314 314 314 314 314 314 313 312 311 310 308 305 303 302 301 300 297 296 296 298 299 299 300 297 295 296 294 291
314 314 314 314 314 314 314 314 314 313 311 308 305 302 300 299 299 297 296 295 295 294 297 300 300 299 297 295 297 293 289 288
314 314 315 314 314 314 313 313 312 308 304 302 300 299 297 296 296 295 293 293 292 292 294 299 300 299 296 297 294 289 288 288
315 315 314 313 313 313 311 308 306 304 302 300 299 297 296 295 295 293 292 291 291 291 295 299 299 297 295 294 291 289 288 287
315 313 312 311 311 309 310 307 304 302 300 299 297 296 296 295 294 293 291 290 290 292 298 298 297 297 294 292 289 289 288 288
314 311 310 309 308 307 305 304 304 304 299 298 297 296 296 295 294 292 290 290 290 293 296 296 295 295 293 294 290 288 288 288
311 309 309 308 305 305 305 304 304 299 298 297 296 296 295 294 292 290 290 290 290 292 295 295 294 293 293 292 289 289 288 288
308 308 307 305 303 303 304 303 300 298 297 296 296 295 294 293 291 290 291 290 290 291 292 293 293 293 292 289 289 289 288 288
309 308 307 305 303 304 305 300 299 298 296 296 295 294 294 293 291 290 290 290 290 292 292 292 293 290 289 289 289 289 288 288
309 309 306 304 305 304 300 299 298 297 296 295 295 294 293 292 291 290 290 290 291 292 292 292 292 291 290 290 289 288 288 287
309 307 305 308 303 301 300 298 297 296 295 295 294 294 293 291 291 290 290 290 290 291 291 291 291 291 291 289 288 288 287 286
309 307 305 302 301 300 299 298 296 295 295 295 294 293 292 291 291 290 290 290 290 291 291 291 291 290 288 288 288 287 286 283
308 305 302 301 300 300 298 297 296 295 295 293 293 291 291 292 291 290 290 290 290 290 290 289 288 288 288 287 287 285 283 282

GFSFLT1_850_thetae_018.txt.gz
Theta_e
327 326 325 328 329 329 327 328 327 327 325 324 324 322 319 319 318 316 313 312 312 312 311 309 308 308 307 307 307 307 307 306
326 324 324 324 324 324 325 326 326 325 325 324 321 319 320 317 313 312 312 311 311 309 308 308 307 307 307 306 306 306 305 304
328 329 327 329 328 328 326 326 324 323 322 321 320 318 314 312 312 312 311 311 309 307 307 307 307 306 306 305 303 302 302 302
328 329 330 330 327 327 326 323 322 321 317 313 312 312 312 312 311 311 310 308 307 306 306 305 303 303 302 302 302 302 301 301
329 327 325 326 324 321 320 319 317 315 312 314 314 314 315 312 310 308 308 307 305 305 303 299 299 300 301 301 300 299 298 298
322 321 321 319 318 316 314 313 313 312 312 313 313 312 311 309 308 307 307 306 305 304 303 301 301 301 301 300 299 297 297 297
318 317 315 315 314 313 313 313 312 312 313 313 312 308 306 305 304 303 301 300 300 300 301 302 301 300 301 299 297 297 297 295
316 315 314 314 314 313 312 312 312 311 310 306 303 302 301 301 299 298 297 297 297 297 297 299 300 299 299 298 297 297 294 293
316 316 315 314 313 312 311 311 310 306 304 302 300 299 297 298 297 296 296 296 296 296 297 298 299 299 298 297 297 296 294 293
317 316 314 313 312 312 310 307 305 303 302 304 300 298 297 297 296 296 295 295 295 296 298 298 298 299 297 297 296 295 294 293
317 315 313 312 312 309 309 304 304 308 306 300 298 297 297 297 296 295 294 294 294 295 296 297 298 298 297 296 295 295 293 292
316 314 313 312 310 307 305 305 307 305 300 298 297 297 297 297 296 295 294 294 294 294 294 296 296 296 295 295 294 294 293 291
316 313 311 310 308 305 305 306 306 301 299 297 297 297 297 296 296 295 294 294 294 294 294 294 294 294 294 294 295 293 291 291
314 311 310 309 306 304 304 305 303 301 298 297 297 297 297 296 296 294 294 293 293 294 294 294 294 294 293 294 292 291 290 290
313 311 309 306 304 303 304 308 301 299 298 297 297 297 296 296 295 294 294 293 293 293 294 294 294 292 292 291 291 290 290 289
312 310 308 305 302 302 308 303 301 299 297 297 297 296 296 295 295 294 293 293 293 293 293 293 293 292 291 291 290 290 289 289
311 310 309 306 303 306 303 302 299 298 297 297 296 296 295 295 294 294 293 292 292 292 292 293 293 292 291 291 288 288 288 287
311 310 309 306 305 303 302 301 299 298 296 296 295 294 294 294 293 293 293 292 292 292 292 292 291 290 289 288 288 287 286 285
312 311 308 305 303 302 301 300 298 297 296 295 293 293 293 293 293 293 293 292 292 292 291 291 290 289 288 288 287 286 285 283

GFSFLT1_850_thetae_021.txt.gz
Theta_e
329 329 327 327 329 333 334 333 330 327 325 324 323 324 323 320 319 317 316 314 312 313 313 311 310 311 311 311 311 310 309 307
330 330 330 330 333 334 333 329 329 327 327 327 326 322 320 319 316 314 312 312 311 311 311 311 311 311 310 309 309 308 304 303
331 331 331 331 332 333 330 329 327 328 327 325 323 322 319 316 314 312 311 311 311 310 310 310 309 308 307 306 305 304 303 302
331 332 332 333 332 331 331 330 328 325 324 323 321 318 315 315 314 313 311 310 310 309 309 308 307 305 303 303 304 304 302 301
331 332 333 332 331 330 328 326 324 323 319 317 317 317 318 315 313 312 311 310 309 308 306 305 304 303 303 303 302 302 300 300
331 331 329 328 326 325 323 322 318 317 317 317 316 316 314 312 311 309 307 305 303 302 301 302 304 303 303 302 302 301 299 300
326 325 324 323 321 320 318 316 316 316 315 315 314 312 309 308 305 303 301 300 299 299 299 299 300 301 302 302 301 300 299 299
321 320 319 319 318 317 317 316 315 314 312 309 308 307 303 302 301 300 299 299 298 298 298 298 299 300 301 300 300 299 299 297
319 318 318 318 318 317 315 315 313 310 308 306 304 310 308 302 300 299 298 298 297 297 297 298 300 300 300 298 298 298 297 296
319 318 318 318 317 316 315 314 311 307 305 308 310 308 301 300 300 299 298 297 296 296 297 297 298 299 299 299 299 298 297 296
319 319 319 318 316 316 314 311 307 306 309 308 305 300 300 300 300 299 297 296 296 296 296 296 296 297 297 298 298 297 296 296
320 319 318 317 316 314 311 307 307 308 308 304 300 300 300 300 299 298 297 296 296 295 295 296 296 296 296 296 296 296 296 295
321 319 317 316 315 312 309 307 307 306 304 304 301 300 300 299 299 298 297 296 296 295 295 295 295 295 295 295 295 295 295 294
321 320 317 316 314 311 308 307 306 304 305 301 300 300 300 299 299 298 297 296 295 295 295 295 295 295 294 294 293 293 293 293
322 320 317 315 314 310 307 306 306 307 301 300 300 300 300 299 298 297 296 296 295 294 295 294 295 294 294 293 292 292 292 292
321 320 316 314 313 309 307 306 307 303 301 300 299 299 299 299 297 297 296 295 295 294 294 294 294 294 293 292 292 292 291 291
320 318 316 314 311 308 305 307 306 304 301 300 299 299 299 298 296 296 295 295 294 294 294 293 294 294 293 290 290 289 289 289
318 317 315 313 311 307 305 307 304 302 300 299 299 298 298 296 295 294 294 295 294 294 293 293 293 293 291 289 288 288 288 288
317 316 314 314 311 307 306 304 303 301 299 298 298 297 295 294 294 294 294 294 294 293 293 292 292 291 290 289 288 287 287 286

GFSFLT1_850_thetae_024.txt.gz
Theta_e
328 326 326 327 333 333 332 330 328 325 323 324 324 323 324 323 320 319 316 313 312 313 314 312 312 312 312 311 310 309 308 307
329 328 327 326 332 334 333 331 330 328 325 325 325 324 321 320 318 316 314 313 312 311 312 312 311 311 310 309 306 304 304 303
331 331 330 330 334 334 333 330 330 327 326 326 325 322 320 318 316 313 312 312 312 311 311 310 310 309 306 303 303 303 304 303
331 332 332 332 333 333 332 329 328 328 327 324 323 321 318 316 314 313 312 312 311 310 309 307 304 304 304 303 303 303 303 302
331 332 333 333 332 331 330 328 328 326 324 323 321 318 316 316 314 313 312 311 309 307 304 303 303 303 304 303 303 303 302 301
331 332 332 331 330 330 330 327 325 324 319 319 319 318 316 314 313 310 307 306 304 301 301 300 299 298 300 301 302 302 302 300
331 332 331 330 330 327 325 323 319 318 318 318 317 315 313 311 308 307 306 302 300 299 298 297 295 298 299 300 301 301 301 300
331 330 328 326 325 323 321 317 317 317 317 316 315 313 310 308 310 308 304 299 298 297 296 295 296 297 299 300 301 301 299 298
327 326 324 322 320 319 317 317 316 314 312 310 309 308 311 311 308 300 297 298 296 296 296 295 295 297 299 300 300 298 298 298
323 322 321 320 319 318 317 316 314 311 309 308 308 311 311 304 300 298 298 296 296 296 296 295 296 296 297 298 296 298 298 297
321 320 319 319 319 318 316 315 313 310 307 308 310 309 304 300 299 300 299 297 296 296 296 296 296 296 295 296 297 297 296 296
321 320 319 319 319 317 316 315 311 307 307 309 308 305 301 300 300 300 299 297 297 296 296 295 295 296 296 296 296 295 295 295
321 320 320 319 318 317 316 313 309 308 308 307 305 301 301 301 300 300 299 298 297 296 295 295 295 295 295 294 293 294 293 294
323 321 320 319 318 317 314 311 308 308 306 304 302 301 301 300 300 300 299 298 297 296 295 295 295 295 295 295 294 293 293 293
323 322 321 319 318 316 314 310 308 307 305 304 301 301 301 300 300 300 298 297 297 296 295 294 294 294 294 294 294 293 292 292
322 323 321 319 318 316 313 310 308 307 306 302 301 300 300 300 300 299 298 297 296 295 295 294 294 294 294 294 293 291 291 291
320 322 322 320 318 316 314 310 308 308 305 302 301 300 300 299 299 298 297 295 295 295 295 294 294 293 294 293 292 289 289 289
318 320 321 320 318 316 314 310 307 307 305 302 301 300 299 298 297 295 295 294 295 295 294 294 293 293 293 292 290 288 287 287
317 318 319 318 317 314 311 308 306 306 303 301 299 299 298 295 294 293 294 294 294 294 294 293 293 292 292 291 290 288 287 287

GFSFLT1_850_thetae_027.txt.gz
Theta_e
325 326 327 328 329 329 326 323 326 326 325 322 320 323 323 323 321 319 317 314 313 311 311 311 311 311 311 311 311 309 303 302
325 325 326 330 331 330 329 328 327 328 325 320 324 324 322 320 319 317 312 312 312 312 312 312 311 311 311 310 306 301 301 300
327 327 326 331 332 331 331 331 329 328 324 321 325 323 320 319 319 315 312 312 312 312 311 310 309 306 303 301 301 300 301 303
328 328 330 332 333 333 331 331 329 326 326 326 325 321 320 319 317 313 312 312 311 310 308 306 304 303 302 302 301 300 303 302
330 330 329 332 333 334 331 330 326 325 326 327 324 322 320 318 315 313 312 311 309 308 306 304 302 301 301 300 301 300 302 302
331 331 332 331 333 331 331 327 328 328 328 326 322 320 317 316 314 312 311 309 310 309 305 300 299 297 295 295 297 301 301 302
331 332 332 332 331 330 328 328 326 325 323 323 319 319 316 314 313 313 310 310 308 302 299 297 295 294 294 295 298 300 301 301
331 332 332 331 329 328 330 327 324 324 319 319 318 317 316 315 313 310 312 307 300 297 295 295 294 294 294 297 299 299 300 299
331 332 331 330 329 328 325 324 323 320 319 318 317 316 314 312 310 311 309 301 297 295 294 294 294 293 294 297 298 298 297 298
330 329 329 328 327 325 323 320 318 317 317 317 316 315 311 310 311 307 299 297 296 295 294 294 293 294 294 294 296 297 297 297
328 327 326 325 324 322 319 317 317 316 315 313 311 309 310 308 303 300 298 298 296 295 294 294 294 294 295 295 295 295 295 295
325 324 322 321 320 319 317 317 316 315 312 310 308 309 306 303 301 299 299 299 298 297 296 295 295 295 295 295 295 295 294 293
323 321 320 319 319 319 318 316 315 313 311 308 308 307 303 301 300 300 300 299 299 298 297 296 294 294 295 295 294 295 294 293
322 320 319 319 319 319 318 316 315 312 310 308 308 306 301 301 301 300 300 299 299 297 297 296 294 294 294 294 294 294 293 292
323 321 320 319 319 319 318 317 316 312 309 308 308 304 302 301 301 300 300 299 298 297 297 296 295 294 294 294 294 294 293 292
323 322 320 320 319 318 318 317 315 312 308 308 306 303 301 301 300 300 299 298 297 296 295 295 295 294 294 294 293 293 293 290
317 322 321 321 319 318 317 317 314 310 308 307 306 302 300 300 299 299 298 297 295 294 295 295 295 294 294 293 292 292 289 287
317 319 321 321 320 318 317 316 312 309 308 307 302 301 300 299 298 297 295 294 293 294 294 294 294 294 293 293 292 291 290 288
316 316 317 319 319 318 317 314 310 307 307 304 301 300 298 297 296 294 294 293 294 293 293 293 294 293 293 292 292 291 290 288

GFSFLT1_850_thetae_030.txt.gz
Theta_e
330 330 330 328 317 319 324 326 327 324 325 325 325 322 320 322 321 320 320 320 318 313 312 312 311 311 311 310 310 309 304 300
329 329 330 328 320 317 317 317 322 323 326 324 324 320 323 323 322 320 317 313 311 311 311 311 311 311 310 308 304 300 298 297
328 328 330 329 328 326 323 319 319 322 325 324 322 321 324 323 321 319 313 312 311 312 312 311 310 309 306 301 299 298 298 298
326 327 327 328 329 329 329 328 328 325 326 326 321 323 323 321 319 318 314 312 312 312 311 311 311 305 300 300 299 300 300 300
325 325 327 327 329 330 331 330 329 328 328 326 320 324 321 320 318 317 313 312 312 312 311 311 308 302 300 299 296 296 298 300
326 326 326 327 329 331 330 330 330 330 326 322 323 321 319 319 318 316 314 313 313 310 312 308 302 299 297 294 294 295 298 301
328 328 329 331 331 332 332 329 327 327 325 325 324 322 321 320 317 314 314 313 308 307 302 302 298 295 294 293 293 297 299 300
329 329 330 331 332 331 330 329 326 327 327 327 327 325 324 320 316 314 313 308 308 308 300 296 295 294 293 293 294 295 298 298
330 331 331 332 332 330 328 327 327 325 326 324 321 320 318 316 314 313 309 307 300 298 295 295 294 293 293 293 293 294 296 297
331 331 332 332 331 329 328 328 327 324 320 319 317 316 314 313 311 309 306 300 299 296 296 294 294 293 292 292 293 295 295 295
331 331 332 331 329 328 328 328 327 324 321 318 316 314 312 310 309 307 304 301 298 299 297 295 294 294 293 293 294 295 295 295
330 331 331 330 329 328 327 325 324 322 319 317 316 314 311 309 308 305 300 300 301 300 298 297 296 296 294 293 294 294 294 294
329 329 329 328 327 326 323 322 320 318 317 316 315 312 310 309 306 302 301 301 300 299 299 298 296 296 294 293 294 294 295 294
328 328 327 327 325 323 321 319 318 317 316 315 313 310 308 309 303 302 301 300 299 299 298 297 296 295 294 294 293 293 294 294
327 326 326 324 323 321 319 318 317 317 316 314 311 309 308 306 302 301 301 300 299 298 297 295 295 295 295 294 294 294 293 293
324 323 323 322 320 319 319 318 318 317 315 312 310 308 307 303 301 301 300 298 298 297 295 294 294 295 295 294 294 293 292 292
319 322 321 320 319 319 318 318 317 316 314 310 308 306 303 301 301 299 298 298 296 294 295 293 294 295 294 294 293 293 292 291
317 318 320 320 320 319 319 318 317 315 310 307 305 304 301 300 298 297 297 298 296 295 293 294 294 293 293 293 293 293 292 291
315 316 317 319 319 319 318 317 315 310 307 306 305 301 300 298 297 298 299 298 295 293 293 293 293 293 293 293 292 292 291 291

GFSFLT1_850_thetae_033.txt.gz
Theta_e
323 323 326 328 327 327 326 328 326 324 325 325 328 329 328 325 321 321 320 320 321 322 321 317 311 311 311 310 309 305 301 299
328 326 326 326 329 329 328 327 326 324 325 326 328 327 323 321 322 321 320 320 320 317 312 311 311 311 310 308 305 300 299 297
330 329 328 327 327 328 329 327 325 325 325 325 326 325 323 322 321 320 318 316 313 311 311 311 311 310 309 307 302 299 297 296
330 329 329 329 327 323 322 321 321 324 325 325 326 324 322 322 321 321 317 313 312 311 311 311 310 310 309 308 301 298 295 295
330 330 328 328 327 325 323 319 319 320 323 326 326 324 322 322 323 320 317 314 312 311 312 310 310 307 306 301 297 295 294 295
328 329 328 328 329 327 325 324 323 322 323 327 327 324 322 322 322 318 316 314 312 312 311 308 304 304 302 296 294 293 294 296
326 326 327 328 329 328 327 328 328 326 326 327 327 323 321 322 320 317 316 314 313 312 308 305 303 303 295 295 293 293 294 297
324 325 325 327 327 328 328 329 328 328 328 329 327 324 321 323 319 318 316 314 313 308 304 302 306 299 298 294 293 292 293 295
325 325 325 325 326 327 329 329 329 328 328 327 325 323 324 323 321 318 315 313 308 303 301 304 300 295 294 293 292 293 293 295
326 327 327 328 329 329 329 329 329 327 325 325 326 326 325 324 320 315 313 307 304 305 307 297 297 295 294 293 292 292 293 295
326 327 328 329 330 331 329 329 328 326 326 325 324 325 322 320 318 314 311 310 309 308 299 300 298 296 294 294 293 292 294 294
327 328 329 330 331 331 329 328 327 327 326 325 323 320 318 315 314 311 309 309 307 300 303 300 298 295 295 295 293 293 293 293
326 329 330 330 330 330 329 328 328 327 325 323 320 318 315 314 312 310 308 305 301 302 300 299 298 295 295 294 294 294 293 293
329 330 330 330 330 330 329 328 327 325 323 321 319 316 315 314 310 309 308 303 302 301 299 298 296 295 294 294 294 295 294 293
328 329 330 330 330 328 327 326 324 322 320 319 316 316 315 313 310 308 303 301 301 299 298 297 295 295 294 295 295 294 294 293
327 327 328 328 328 327 325 324 322 321 318 317 317 315 313 310 307 303 301 300 298 297 296 295 296 294 294 295 294 294 293 293
324 325 325 325 325 324 323 322 321 319 317 317 315 310 306 304 302 301 299 297 296 295 299 299 296 294 294 294 293 293 293 293
317 318 319 319 319 319 319 319 319 317 316 314 310 307 305 303 301 299 297 297 299 299 299 296 293 293 293 293 293 293 293 292
315 315 316 317 318 318 318 317 316 314 312 309 307 305 302 298 297 297 298 298 299 300 295 293 292 291 291 293 293 293 292 292

GFSFLT1_850_thetae_036.txt.gz
Theta_e
320 322 323 322 324 327 325 325 323 320 319 324 326 326 327 327 327 326 322 320 320 323 323 322 319 312 311 310 309 304 300 299
321 321 322 324 327 326 325 325 324 323 323 324 324 326 327 327 326 323 320 320 320 322 321 317 312 311 310 308 304 300 299 297
324 323 322 323 324 325 325 326 326 325 324 324 325 325 326 326 323 321 321 320 320 319 316 312 311 310 308 306 303 300 297 296
327 326 325 324 323 323 325 325 325 325 326 325 325 326 326 323 321 321 321 317 316 314 312 311 311 308 307 305 300 296 297 296
329 328 328 327 326 325 325 324 324 326 325 324 324 325 325 324 322 321 319 315 313 311 311 311 309 307 305 304 299 300 301 296
328 328 328 328 327 327 326 326 325 327 325 325 325 326 325 324 322 320 318 315 313 312 311 310 308 307 306 307 306 308 304 294
327 327 328 329 328 328 327 326 325 325 325 325 325 326 326 323 322 320 317 315 315 313 311 309 305 305 308 310 312 299 294 293
326 327 326 327 328 328 328 327 325 323 323 324 325 325 326 323 322 321 318 317 316 313 311 310 304 305 311 307 296 295 293 292
326 326 326 326 327 328 328 328 325 325 324 325 324 325 326 323 322 321 319 317 316 313 311 305 307 311 309 300 295 294 292 292
326 326 325 325 326 325 326 327 326 326 326 327 327 327 326 323 321 320 319 318 316 314 310 309 308 306 301 296 294 293 292 292
323 323 324 325 325 325 324 325 326 327 327 327 326 326 324 324 323 322 321 318 316 311 308 310 303 301 298 295 295 294 293 292
323 324 324 325 326 325 326 328 329 328 329 327 326 325 325 322 321 321 320 318 313 307 309 305 302 299 296 295 296 294 294 294
324 325 326 326 326 327 328 328 325 326 324 325 325 325 322 321 320 319 317 314 308 307 302 301 299 298 295 297 296 294 294 294
324 326 326 327 328 328 329 327 326 325 324 324 323 322 321 320 318 316 313 308 305 301 301 300 298 296 296 297 294 294 294 294
323 325 326 328 329 328 328 326 326 325 324 323 322 319 318 316 314 310 307 304 304 300 300 299 297 296 299 295 294 294 295 294
323 325 327 327 328 328 327 326 326 325 323 320 318 317 315 312 311 309 304 301 300 299 297 296 296 299 299 297 294 295 294 293
323 323 323 323 324 325 325 325 324 322 320 318 316 314 311 310 308 306 302 301 299 298 296 297 299 299 295 294 294 294 293 293
317 317 318 318 318 318 318 318 318 318 317 316 313 310 308 307 303 301 300 299 298 296 297 299 298 298 294 293 293 292 292 293
314 314 314 314 314 315 317 317 316 315 314 311 309 308 306 303 300 298 298 297 297 298 299 299 296 293 291 291 291 291 292 292

GFSFLT1_850_thetae_039.txt.gz
Theta_e
324 325 325 323 322 323 322 324 323 325 323 315 317 313 322 321 323 322 323 323 323 323 324 322 322 320 314 311 310 308 303 300
322 323 323 323 321 322 326 326 323 324 321 315 322 323 321 324 324 324 324 323 320 320 322 322 321 317 311 310 308 306 302 298
323 321 322 322 322 323 326 326 324 324 322 319 322 325 325 326 325 325 324 321 320 320 321 321 318 311 311 308 308 303 298 298
326 323 320 321 322 324 326 325 324 324 324 323 323 324 324 325 325 325 322 320 320 320 320 317 312 311 309 308 305 303 304 301
327 326 323 323 321 322 324 326 325 325 326 326 325 324 324 324 325 324 321 320 319 318 316 313 311 310 308 305 307 304 307 306
327 327 327 326 325 323 323 324 325 326 325 326 325 326 325 325 325 322 321 319 318 316 313 311 311 309 306 306 309 310 310 306
328 328 328 328 328 327 326 325 325 326 324 324 326 326 325 325 325 323 322 319 317 315 312 312 311 308 305 307 310 312 304 298
328 328 327 327 327 327 328 327 327 326 326 326 326 326 326 325 325 324 323 321 318 316 314 313 310 307 305 309 311 307 298 295
327 328 327 326 327 326 327 329 327 327 324 324 325 325 325 326 325 325 323 321 320 316 314 311 308 305 307 309 306 301 294 297
320 323 327 327 326 326 326 327 328 328 323 324 325 325 324 324 324 324 321 320 319 316 313 310 306 305 309 306 300 295 297 298
321 322 323 324 326 324 325 325 327 327 326 326 326 326 326 325 325 324 322 321 318 316 312 308 304 308 307 304 296 296 300 296
321 321 322 323 323 324 324 324 325 325 325 326 326 326 325 325 323 322 322 321 317 315 310 304 306 304 299 296 296 299 298 294
322 322 323 324 324 324 325 325 325 325 325 325 321 322 322 322 321 321 321 320 318 312 305 304 304 300 298 297 297 300 295 294
322 323 324 325 325 325 326 327 326 326 325 324 323 322 322 322 323 320 319 318 315 310 303 303 304 299 297 296 298 299 295 295
322 324 325 326 326 327 327 327 326 325 325 324 324 323 323 321 320 318 316 315 310 304 302 301 299 297 297 296 299 299 295 295
322 323 325 326 327 327 328 327 327 326 325 324 323 320 319 317 316 313 309 305 301 301 300 299 297 297 296 299 299 295 294 294
321 322 323 323 323 323 323 322 322 321 320 318 318 316 314 313 310 306 304 302 301 299 297 296 296 299 299 298 297 294 293 293
316 316 316 317 317 317 317 317 317 317 317 317 315 314 311 309 306 306 304 301 298 297 298 300 300 299 298 297 293 292 292 291
314 314 313 313 314 314 315 316 316 315 314 313 311 309 308 306 304 302 300 299 298 301 300 299 298 298 296 292 291 290 290 290

GFSFLT1_850_thetae_042.txt.gz
Theta_e
329 328 326 326 325 324 323 321 325 325 324 317 319 317 321 324 323 324 324 324 323 323 324 324 323 320 320 317 311 310 308 306
328 329 329 328 328 326 326 326 326 326 326 324 321 320 322 325 324 325 323 323 323 323 323 323 322 320 318 315 311 309 308 304
325 328 328 328 327 328 327 327 327 327 328 327 322 323 322 324 322 322 324 323 324 321 321 321 322 320 318 311 310 308 305 309
327 325 326 328 327 327 327 328 330 328 329 327 324 325 327 325 324 325 324 324 324 321 321 321 321 319 314 311 309 308 307 308
328 327 326 325 327 327 327 328 330 329 329 328 326 324 325 326 324 324 324 324 322 321 321 321 320 317 312 311 310 308 310 311
328 328 328 327 326 327 327 328 330 329 328 328 328 327 326 327 324 323 324 324 321 320 320 319 317 314 312 310 309 308 312 312
327 328 329 329 329 328 326 326 327 329 329 327 327 326 328 326 324 324 324 323 321 320 317 316 314 312 311 309 306 308 311 307
328 328 329 330 331 331 328 326 326 326 325 322 323 324 325 325 324 324 325 324 322 320 317 315 312 311 310 307 306 309 306 303
328 329 329 330 331 333 330 328 328 326 325 325 325 324 325 326 324 323 325 325 322 321 318 316 313 311 308 305 306 308 300 295
324 327 329 329 331 333 333 332 330 329 327 325 322 321 323 325 324 325 325 324 323 321 319 316 314 312 306 304 306 299 295 298
322 323 325 327 329 331 332 332 332 332 329 323 324 324 325 326 325 325 325 324 323 321 319 316 313 308 305 305 306 297 298 300
324 324 325 326 327 329 330 330 330 331 329 328 327 326 326 327 325 324 323 322 321 321 319 315 313 308 304 305 298 298 299 300
325 327 327 326 325 328 328 328 329 330 330 328 325 326 325 323 323 323 322 321 321 321 318 315 310 304 304 302 297 296 298 300
326 328 328 328 327 327 327 326 328 327 326 325 325 324 323 323 323 322 322 321 320 319 314 309 302 302 300 298 298 296 300 298
325 327 328 328 327 326 327 327 327 327 327 326 326 325 324 323 322 321 320 319 318 317 311 305 302 300 300 297 297 299 300 299
325 327 327 327 327 326 326 327 327 326 326 325 324 323 321 320 319 318 317 315 313 312 309 303 301 300 298 301 299 299 299 297
322 324 324 324 324 323 325 325 324 322 321 320 319 319 318 316 315 313 312 309 306 302 304 300 303 298 299 301 299 299 298 295
317 317 317 318 318 318 318 318 317 317 317 316 316 315 314 312 310 308 306 304 302 303 300 302 299 298 300 299 298 297 294 294
312 313 314 314 314 314 315 315 315 315 314 313 312 311 309 307 306 305 303 302 302 300 298 298 300 299 299 298 297 293 292 292

GFSFLT1_850_thetae_045.txt.gz
Theta_e
326 325 322 321 322 321 320 320 322 322 323 324 322 320 322 322 322 325 326 326 322 322 325 324 323 322 322 320 318 315 312 310
328 325 324 324 324 324 324 323 322 323 324 324 322 320 320 322 324 326 327 327 324 324 325 324 323 322 321 319 317 313 311 309
328 329 326 327 326 326 325 325 325 326 327 327 324 322 320 322 324 326 325 326 326 324 325 324 322 321 320 318 315 313 312 309
327 328 328 327 326 326 326 326 327 327 328 327 326 323 322 322 324 326 325 326 326 325 325 323 322 320 318 318 316 312 311 311
325 326 329 329 328 328 328 328 328 327 327 328 327 323 325 327 325 325 327 327 326 325 324 322 320 319 318 316 314 311 310 311
327 325 324 328 329 329 329 329 328 329 329 328 328 327 326 327 327 327 327 327 325 323 322 320 320 319 316 315 311 310 310 309
327 327 326 325 326 328 329 329 329 329 330 329 330 329 327 327 327 327 326 325 322 322 321 321 321 319 315 313 310 309 308 308
326 327 328 328 327 327 328 328 327 329 330 328 328 328 325 324 327 328 325 324 322 321 321 322 320 319 314 312 310 309 306 307
327 326 327 328 329 330 330 330 329 329 331 330 319 322 322 321 321 323 325 324 323 321 320 322 320 316 314 311 310 306 306 308
326 327 327 328 330 332 332 332 332 331 330 329 324 323 323 322 322 324 325 324 322 322 321 321 318 315 312 311 307 305 306 303
324 326 327 328 330 331 333 335 334 333 331 330 326 325 323 321 321 324 324 324 322 323 322 320 318 314 311 310 304 305 304 300
325 325 326 327 329 331 333 336 335 334 332 330 329 325 324 324 324 324 325 323 322 322 321 318 314 312 312 304 303 302 300 300
325 327 328 328 329 329 332 334 334 334 333 332 331 326 325 325 326 326 325 322 321 320 321 319 313 313 308 303 302 299 299 299
325 328 330 330 330 331 332 332 332 332 332 331 330 329 327 328 326 325 324 322 321 320 318 314 312 309 304 301 302 299 300 302
324 327 329 330 331 331 331 332 332 332 331 330 328 327 324 324 323 322 321 320 318 316 315 313 308 306 301 302 300 301 301 300
322 327 328 330 330 331 331 328 327 326 326 325 324 322 320 319 317 316 317 318 316 315 313 309 306 305 303 303 302 298 299 300
325 327 329 330 329 328 326 325 323 322 321 319 317 316 315 314 314 315 313 311 310 309 308 307 305 303 301 302 299 299 299 299
324 326 327 327 325 324 322 320 318 317 315 313 312 313 314 313 312 310 308 306 303 301 302 301 300 300 299 298 298 299 299 298
320 320 320 321 320 318 316 315 314 312 311 310 311 311 312 310 308 306 304 303 303 303 301 299 299 299 299 299 299 297 295 294

GFSFLT1_850_thetae_048.txt.gz
Theta_e
325 322 320 319 318 318 317 316 315 313 312 315 319 320 321 321 321 321 323 323 321 322 324 325 323 323 323 322 321 319 317 314
325 322 320 319 318 318 316 315 314 314 314 314 321 321 321 320 321 321 324 323 321 322 323 325 323 323 323 322 321 318 316 313
325 323 321 322 322 320 318 318 320 320 319 321 323 322 319 321 322 323 325 326 324 323 323 326 324 323 323 322 320 319 316 313
326 325 324 323 324 324 324 322 321 322 322 321 325 322 321 320 322 323 325 326 324 324 324 325 325 323 322 321 320 318 314 312
327 328 326 326 325 325 325 325 324 322 324 326 325 325 323 321 321 325 325 324 324 324 326 325 325 323 321 321 320 318 313 312
329 329 329 327 327 327 325 326 325 326 325 329 327 327 323 323 323 323 325 325 324 326 326 325 324 323 321 320 318 317 313 311
326 327 328 329 329 328 327 326 326 328 327 325 328 327 326 325 328 327 326 326 326 326 326 324 324 322 321 318 317 314 312 310
327 326 325 328 329 329 329 329 329 329 329 329 327 328 327 326 326 327 327 321 322 324 323 323 322 321 320 317 315 314 311 309
326 327 327 325 326 329 329 329 328 329 329 330 329 322 322 320 324 326 325 323 319 322 324 322 321 321 319 317 315 313 310 311
327 327 328 328 326 326 327 328 330 329 329 329 327 321 321 322 326 323 323 321 320 323 324 322 321 321 318 316 314 312 311 307
326 327 327 328 329 328 328 328 328 329 329 329 330 327 324 323 323 323 323 322 324 324 323 323 321 319 317 315 314 312 309 304
325 325 326 328 328 330 330 330 330 331 331 331 330 330 326 325 323 324 324 324 324 324 322 321 320 318 315 314 311 310 304 304
326 326 326 326 328 330 334 333 334 334 333 333 332 330 330 327 325 323 326 324 323 322 320 320 319 318 314 312 309 306 303 302
324 327 328 328 329 329 331 334 335 333 333 333 332 330 328 327 327 326 323 322 321 320 320 319 317 312 310 308 305 302 301 302
321 326 329 330 330 331 332 333 334 333 331 330 331 330 328 327 325 323 321 321 320 319 317 315 314 312 309 308 305 302 302 302
321 323 329 331 332 332 332 332 332 332 330 330 331 329 324 323 321 320 320 319 317 316 316 314 312 309 308 306 302 302 301 300
321 322 328 330 331 331 332 331 330 328 327 326 325 322 320 317 316 314 314 315 314 313 311 309 308 306 304 302 300 300 299 299
324 326 330 331 331 330 327 326 325 324 323 322 319 317 316 315 314 313 311 309 308 305 304 303 302 300 300 300 298 298 298 298
325 328 329 329 327 325 323 321 320 319 317 315 314 314 313 312 310 309 307 305 304 303 303 301 301 301 299 298 298 297 296 292

GFSFLT1_850_thetae_051.txt.gz
Theta_e
322 320 320 319 319 318 318 319 314 316 318 317 316 313 313 314 316 316 317 318 322 322 323 322 324 323 323 323 322 321 320 317
322 320 319 319 318 318 318 319 317 316 317 315 314 316 317 315 315 314 315 315 316 319 322 323 324 321 322 322 322 321 320 317
322 319 318 318 318 318 318 317 317 316 314 313 314 315 318 319 315 318 321 321 321 322 320 321 323 321 323 323 322 322 320 318
323 319 318 318 318 317 316 315 315 314 314 314 316 321 322 320 319 320 321 321 324 323 323 320 322 321 323 323 323 322 320 319
324 323 321 321 320 318 318 316 315 315 316 316 317 322 324 321 318 320 322 324 324 324 322 322 323 324 323 323 322 322 320 318
325 324 323 323 323 323 322 319 319 319 319 320 320 321 323 322 321 319 321 322 323 323 322 322 324 324 325 323 322 321 320 316
326 325 325 324 324 323 323 324 323 322 318 321 323 323 325 324 323 322 320 323 324 324 321 322 323 325 324 323 322 321 319 317
326 326 326 326 325 324 325 324 324 324 323 323 324 326 326 326 324 323 324 323 325 324 321 323 323 323 323 323 322 320 318 315
326 327 327 328 328 327 327 326 325 325 325 326 326 324 325 327 323 326 326 325 325 323 320 323 323 323 322 322 321 319 317 315
326 326 327 327 328 328 328 327 326 326 326 326 327 326 325 326 326 327 326 324 324 325 323 320 320 323 322 321 320 319 317 315
326 326 326 326 326 326 328 329 328 328 329 329 329 328 327 327 323 327 323 323 324 325 322 321 322 323 322 320 319 317 315 312
325 326 326 327 326 326 328 329 329 329 328 328 329 329 329 328 325 322 323 324 324 323 322 322 322 321 321 319 318 316 312 309
323 324 326 327 327 326 326 325 325 326 328 329 329 329 327 329 328 326 324 323 324 323 322 322 321 320 320 319 317 314 309 308
325 323 323 325 328 329 327 327 326 323 323 329 329 328 328 328 328 327 326 326 323 323 322 321 319 318 318 317 313 309 308 307
325 326 324 323 325 331 331 330 329 329 329 330 330 329 330 330 328 326 325 323 323 321 321 320 319 318 315 311 309 307 307 304
322 326 326 326 325 330 332 333 333 332 332 332 331 329 330 328 326 325 323 321 321 320 319 318 316 314 311 308 307 306 302 300
319 320 328 330 330 329 331 332 332 331 330 330 330 330 331 328 325 322 321 320 319 318 317 315 313 310 307 306 303 301 300 300
319 320 329 331 331 331 331 330 331 331 331 330 329 329 326 324 320 319 316 316 315 314 313 310 307 305 304 302 300 300 299 299
322 323 328 330 330 330 330 330 328 327 327 327 325 323 323 320 316 313 313 311 309 307 304 303 302 301 300 300 299 298 297 297

GFSFLT1_850_thetae_054.txt.gz
Theta_e
321 320 321 320 320 320 321 321 317 316 318 317 315 314 318 319 317 316 316 321 323 321 322 323 322 323 324 323 323 322 321 320
321 320 320 320 320 320 320 320 319 317 316 314 314 313 317 316 315 315 316 319 320 318 322 322 321 321 321 323 322 322 322 320
321 320 319 319 319 319 318 319 318 316 316 317 317 317 316 315 316 315 316 316 316 315 315 317 317 318 319 322 323 322 322 321
321 319 319 319 318 318 319 318 317 316 318 317 316 316 314 315 314 314 315 315 315 317 319 318 319 321 320 322 322 322 322 322
320 319 318 318 318 318 318 319 317 316 318 316 316 315 315 316 315 314 314 314 316 320 321 323 323 321 320 321 322 322 322 322
321 318 317 317 317 317 317 317 318 318 316 314 314 314 316 317 317 315 315 314 319 321 321 324 323 321 321 321 322 322 323 322
324 320 319 317 318 317 316 314 316 317 315 314 314 316 319 319 317 320 318 316 321 322 323 322 321 322 321 322 323 323 323 322
325 323 321 321 320 319 317 317 316 315 315 316 318 319 318 319 322 322 321 319 319 321 322 323 322 321 321 321 322 323 322 321
325 325 323 323 322 322 321 320 319 318 318 318 318 319 319 319 322 325 324 322 322 321 322 324 321 322 322 323 323 322 322 321
325 325 324 324 324 324 323 323 323 322 321 321 319 318 320 324 325 325 326 324 323 323 323 324 320 321 322 323 323 323 321 321
324 325 325 325 325 324 325 324 324 324 324 323 322 322 323 324 324 325 326 324 324 325 324 324 323 321 320 321 322 321 321 319
324 325 325 325 326 325 325 325 325 325 325 325 325 325 325 325 325 326 325 325 324 325 323 324 324 322 320 322 322 321 319 318
325 325 325 326 326 327 327 327 327 327 326 324 323 326 325 325 326 326 326 320 324 323 324 324 323 322 322 322 321 320 319 317
325 325 325 325 326 326 327 327 327 327 327 325 323 327 328 327 325 324 325 325 321 323 323 323 322 321 321 320 319 318 315 315
324 325 326 325 326 326 326 326 327 328 328 325 323 323 328 328 327 323 323 325 326 324 323 322 321 320 320 319 318 316 312 309
324 325 326 327 327 326 326 327 326 326 328 326 326 324 326 329 328 327 323 325 324 322 322 321 320 320 319 317 314 311 309 307
320 322 324 326 325 325 324 325 329 327 327 327 327 325 327 328 327 327 327 325 323 321 321 321 320 318 316 313 310 308 307 304
320 321 322 326 326 326 326 326 328 330 330 329 329 329 329 327 326 326 324 323 320 320 319 318 316 314 312 308 307 305 302 301
320 319 319 325 328 329 329 330 330 328 328 329 328 327 326 327 325 323 321 319 317 316 315 314 312 310 308 305 303 301 299 299

GFSFLT1_850_thetae_057.txt.gz
Theta_e
320 319 320 322 322 323 324 322 323 323 321 319 319 321 318 320 318 315 318 320 318 319 319 320 320 321 321 323 323 323 322 321
321 320 320 320 319 322 322 321 320 319 315 314 319 321 321 316 316 321 320 318 317 319 322 319 319 321 320 322 323 323 322 321
322 320 320 320 319 319 320 321 319 315 314 318 319 322 321 317 316 316 319 319 319 320 321 321 322 321 321 321 322 323 322 322
322 320 319 318 318 317 318 320 320 315 313 314 317 317 316 316 317 316 316 317 319 318 315 316 316 316 319 319 320 322 322 322
321 318 318 319 319 319 318 319 320 318 317 317 316 314 315 316 316 317 315 315 315 316 315 315 316 319 318 318 319 319 322 322
321 319 317 317 318 319 319 318 319 318 317 317 316 314 315 314 315 316 315 315 315 315 315 313 319 322 323 323 321 320 321 322
321 320 318 317 316 317 318 319 319 318 318 317 317 317 317 316 316 315 315 314 314 315 313 314 320 321 322 323 323 322 322 322
323 322 319 318 317 316 316 317 318 318 318 318 318 317 317 316 314 314 314 314 314 314 314 315 321 323 322 321 321 321 321 320
325 323 322 319 318 316 316 315 315 317 318 317 315 315 316 314 315 316 315 315 318 318 316 319 321 322 322 322 321 321 321 321
325 325 324 323 319 319 316 316 316 315 317 316 314 314 314 315 316 317 318 319 321 323 322 321 320 321 323 322 321 322 322 322
324 325 325 325 323 321 320 317 316 316 315 316 315 315 316 317 318 318 319 320 321 323 325 324 323 321 321 322 321 321 321 323
324 324 325 325 325 324 322 321 320 318 317 316 316 316 316 317 317 317 318 320 322 325 324 324 323 323 323 322 321 320 321 321
324 324 324 325 324 325 324 323 322 322 322 321 321 320 319 319 320 320 322 321 323 325 324 323 320 323 323 322 320 320 321 320
322 323 323 324 325 325 324 324 324 324 324 324 324 324 323 323 323 323 323 323 319 320 326 322 323 323 323 321 321 321 319 319
323 323 324 324 324 325 325 325 325 325 325 325 325 325 325 325 324 324 325 325 325 321 321 324 323 323 322 320 321 320 319 318
322 323 324 324 324 324 325 325 325 326 326 326 326 326 326 326 325 325 326 326 323 324 325 325 324 322 321 321 319 319 318 315
322 323 324 323 323 323 323 323 324 325 326 326 326 327 327 327 324 325 328 327 326 323 322 324 322 321 320 319 319 318 315 312
320 320 324 324 323 323 323 323 323 323 324 326 327 327 328 327 326 327 326 326 326 323 323 321 321 320 320 318 317 314 311 308
320 320 320 322 324 324 324 325 325 325 326 326 326 327 327 327 326 324 324 325 324 324 324 321 320 318 316 315 312 310 307 304

GFSFLT1_850_thetae_060.txt.gz
Theta_e
320 320 320 323 324 324 326 325 325 324 324 318 318 316 319 321 320 317 316 316 316 317 317 318 320 321 321 321 321 321 322 322
321 319 320 321 322 323 323 324 325 320 323 315 322 321 322 319 317 317 316 318 317 318 319 316 320 320 320 320 320 321 322 322
320 320 320 320 321 320 321 322 323 319 317 321 317 319 317 317 318 318 319 318 319 317 317 317 319 319 319 318 319 321 322 322
321 321 321 319 319 319 319 319 321 322 316 320 320 318 317 317 320 317 315 316 319 319 317 319 320 322 319 319 319 319 320 322
322 321 319 318 318 319 318 319 320 320 320 317 318 316 317 319 317 315 317 315 319 317 318 316 315 315 315 315 316 318 319 320
325 322 319 317 318 318 319 319 320 320 318 317 316 317 319 320 317 315 315 316 316 317 317 317 316 315 316 316 320 320 320 322
326 324 320 317 317 318 319 319 319 319 318 316 316 318 318 320 318 317 316 314 315 316 315 315 315 315 314 316 320 321 322 322
325 325 321 318 317 316 317 319 319 319 318 316 317 315 316 316 316 315 315 315 315 316 315 315 315 315 313 315 320 321 321 321
324 325 324 320 317 316 316 317 319 319 318 317 317 317 316 315 315 314 313 313 316 316 315 314 314 315 314 315 320 321 322 322
324 324 325 324 321 318 316 316 316 318 318 318 318 317 317 317 317 317 317 316 316 315 315 314 316 321 321 318 320 321 322 322
323 324 324 325 324 322 318 316 315 316 316 317 318 317 317 317 317 317 317 315 314 315 315 317 319 322 322 322 322 320 321 322
324 324 324 324 325 324 323 320 318 315 315 316 316 315 314 314 315 315 315 314 315 316 318 320 322 323 322 323 323 322 322 322
322 323 324 324 324 324 325 324 321 321 317 315 315 316 315 315 315 315 315 315 316 317 318 318 321 323 319 321 321 321 323 322
321 322 323 323 324 324 324 324 324 323 322 320 318 316 315 316 316 315 315 315 316 317 321 321 322 323 322 322 322 323 322 322
319 320 321 322 323 323 323 324 324 324 324 323 322 322 321 320 318 318 319 318 319 321 320 319 322 322 321 323 322 323 322 320
320 321 322 323 323 323 323 323 322 323 324 324 324 324 323 323 322 322 323 324 324 324 323 323 323 324 321 324 323 323 321 319
321 320 321 322 322 322 322 322 322 322 323 323 323 324 324 324 324 324 324 325 325 324 324 325 325 324 324 324 323 321 320 319
321 321 320 320 322 321 322 321 323 323 322 323 324 324 325 325 325 325 325 325 325 325 324 326 324 323 324 323 321 320 320 318
321 321 320 320 321 322 322 322 323 323 323 323 323 324 325 325 325 326 325 326 325 325 324 322 322 322 323 320 321 319 314 311

GFSFLT1_850_thetae_063.txt.gz
Theta_e
320 319 319 324 324 325 326 324 325 324 323 322 318 319 318 318 316 315 317 316 317 318 318 319 319 319 319 320 321 321 321 321
320 319 318 320 323 324 324 325 325 324 319 318 316 315 315 319 319 317 319 316 317 318 318 318 319 319 319 320 320 320 321 321
319 320 319 321 323 323 324 325 324 324 321 321 319 318 316 316 319 320 317 318 317 317 318 318 319 319 317 320 319 320 321 321
321 319 319 320 321 322 322 323 324 324 323 322 317 318 322 316 320 318 316 317 316 317 317 318 320 320 318 319 320 320 319 318
322 320 319 320 319 320 320 322 323 322 321 321 316 321 315 321 322 321 319 317 318 319 319 316 319 318 319 319 318 319 318 318
325 324 320 317 318 319 319 319 320 321 321 319 320 314 318 319 318 317 317 320 319 318 316 317 317 317 317 316 316 318 319 319
325 325 322 318 317 318 319 319 319 320 321 318 320 315 319 318 319 317 319 317 315 315 315 317 316 316 315 315 315 316 318 321
324 325 324 319 317 317 318 319 320 320 319 319 320 317 320 317 315 316 318 316 316 315 315 317 317 316 315 315 315 315 315 318
323 325 325 321 317 316 317 319 320 320 319 319 320 319 318 315 315 315 318 316 316 315 315 316 316 316 316 314 314 314 315 317
322 324 325 323 320 317 315 317 318 319 319 320 319 318 317 316 317 319 318 318 316 316 315 315 314 315 315 315 314 317 319 318
322 323 324 325 322 320 317 315 315 317 318 319 318 318 318 317 317 317 318 318 317 316 316 315 313 315 315 315 317 320 322 321
323 323 323 324 324 323 321 318 316 315 316 317 318 318 318 317 317 317 317 317 316 315 315 315 315 315 315 316 318 322 322 322
321 323 323 323 324 324 323 321 319 318 315 315 316 316 317 317 317 316 317 316 317 317 317 316 315 314 316 321 321 321 321 321
318 320 322 323 323 324 324 324 324 321 319 318 315 315 315 316 316 315 315 315 315 315 315 314 315 315 317 319 319 321 323 322
319 319 320 321 322 322 323 323 324 324 323 321 320 318 316 315 315 315 315 315 314 315 315 315 315 315 318 320 321 322 322 321
320 320 320 320 321 322 322 322 322 323 323 324 324 323 321 320 318 317 316 315 316 317 316 317 317 317 318 321 320 323 321 323
320 321 320 319 321 322 322 322 320 321 322 321 322 323 323 323 323 322 321 320 320 319 319 321 321 322 323 323 323 322 323 323
321 321 321 321 321 320 321 321 322 321 321 321 322 322 322 323 323 323 323 323 322 322 322 323 323 324 324 324 323 323 323 321
319 318 318 321 321 321 320 320 322 322 322 321 322 323 323 323 324 324 324 323 324 322 322 324 323 323 323 322 323 323 321 320

GFSFLT1_850_thetae_066.txt.gz
Theta_e
323 319 322 324 325 326 326 326 326 325 323 322 321 320 319 318 316 320 312 315 316 315 313 312 314 316 321 320 320 320 320 318
323 320 320 322 324 325 326 326 326 324 323 321 319 320 321 317 319 320 313 314 316 315 315 314 314 319 321 320 320 321 321 320
323 321 320 322 323 324 325 325 324 325 323 320 320 318 321 318 317 321 317 315 316 318 318 318 318 318 319 319 320 320 321 320
324 322 320 321 322 323 325 324 325 325 324 321 320 318 319 319 317 316 316 317 316 317 318 318 319 319 319 320 320 319 322 321
326 323 321 322 322 322 324 324 324 324 324 322 320 319 317 321 319 317 315 315 320 317 317 318 318 318 319 320 320 320 320 321
327 325 322 321 321 321 322 322 323 324 324 321 321 318 317 319 320 319 315 317 320 317 317 317 317 318 319 319 321 320 317 317
327 326 324 322 321 321 321 321 322 323 323 323 322 320 319 319 320 317 319 318 318 317 317 316 319 317 317 317 318 318 317 317
328 326 324 322 321 320 320 321 321 321 322 322 322 320 317 321 317 315 320 318 316 316 317 318 317 317 316 317 317 316 316 316
327 327 326 323 321 321 320 321 321 320 321 321 320 320 319 320 314 320 320 319 318 318 317 318 317 315 316 317 317 319 316 316
327 327 326 325 321 321 321 321 322 321 320 320 322 320 319 318 318 319 319 317 317 317 318 316 316 315 315 317 319 320 319 319
327 327 327 326 323 321 321 321 321 322 321 321 321 321 320 320 320 320 319 318 318 319 318 316 317 316 317 319 319 320 320 320
327 327 327 327 325 322 320 319 320 321 321 321 321 321 321 321 320 320 319 318 318 318 318 319 319 319 319 319 319 319 321 318
326 327 327 327 326 324 322 320 320 320 320 321 321 321 321 320 320 320 319 318 318 319 317 318 319 318 318 318 318 318 316 315
322 326 327 327 327 326 324 323 321 320 320 320 320 319 319 319 319 319 319 319 319 319 320 319 318 318 317 317 317 316 315 315
322 324 325 326 326 326 325 324 323 322 321 320 320 318 317 318 318 318 318 318 318 317 318 319 319 319 319 319 317 315 314 317
321 321 323 325 326 326 326 325 324 323 322 322 322 320 318 317 317 316 317 318 318 318 318 317 316 316 316 316 316 315 315 315
320 320 320 322 324 325 325 325 324 323 323 323 323 322 321 321 319 318 317 316 316 316 317 318 317 317 315 315 315 317 318 322
320 320 320 320 321 321 323 322 324 322 321 322 322 323 322 322 322 321 321 320 319 318 318 318 318 318 317 317 319 322 323 323
317 318 319 318 317 319 321 324 323 321 321 322 322 322 322 322 322 322 321 321 321 321 320 320 320 320 321 322 323 323 323 322

GFSFLT1_850_thetae_069.txt.gz
Theta_e
327 326 325 322 326 327 327 324 325 325 324 324 324 323 323 322 318 315 320 321 320 320 320 321 321 321 320 320 320 321 321 320
328 325 325 323 325 326 326 325 325 325 324 324 324 322 322 320 316 313 312 319 320 317 318 317 318 319 320 320 321 322 321 321
328 326 324 323 323 324 326 326 326 325 324 323 323 322 321 318 315 314 320 320 318 315 315 315 316 314 322 322 323 323 323 321
329 327 325 323 323 324 324 325 326 325 324 323 322 321 320 318 316 317 319 321 320 317 318 316 314 316 323 322 323 323 321 322
329 327 325 324 323 324 324 324 324 324 323 322 322 321 321 319 316 316 320 316 317 316 317 317 315 319 323 323 321 322 320 320
329 328 326 325 323 324 325 324 325 324 324 323 321 321 322 321 318 316 321 320 317 316 317 317 318 319 320 320 320 320 320 319
329 328 327 324 326 322 324 324 324 324 324 323 324 323 321 320 319 318 318 319 317 318 316 316 318 318 318 318 319 319 319 319
329 328 327 324 325 325 324 324 323 324 324 324 322 322 321 319 322 322 319 316 316 315 319 318 318 318 318 317 319 317 318 317
329 328 327 325 324 325 325 324 323 322 323 324 323 322 321 319 319 322 320 316 315 315 317 320 318 317 317 318 318 318 317 316
329 329 328 327 325 324 325 324 324 323 321 323 324 323 322 322 321 321 320 318 318 316 318 318 318 317 317 318 319 318 316 316
329 329 329 328 326 324 325 325 324 324 323 321 322 323 323 322 321 320 319 317 315 316 318 318 318 317 317 317 317 318 318 318
328 329 329 329 327 325 325 325 325 325 324 324 322 323 322 322 322 321 320 319 316 317 320 319 317 317 317 318 317 318 319 320
328 329 329 330 329 327 325 325 324 324 325 325 324 323 323 323 322 322 321 321 320 320 320 320 319 319 319 319 319 319 319 320
325 328 329 330 330 329 327 326 325 324 324 325 325 324 324 324 323 323 323 322 322 321 321 320 320 320 320 321 321 320 321 320
324 325 328 329 329 330 329 327 326 325 324 324 324 324 323 323 323 324 323 323 322 322 321 320 320 320 320 320 321 321 320 320
322 322 325 327 328 329 329 329 327 326 325 324 324 323 323 324 323 323 322 322 322 322 322 321 321 321 321 321 321 321 320 320
321 322 322 322 325 328 328 329 328 327 326 325 325 324 324 323 323 323 322 322 321 321 320 321 321 321 320 320 319 321 321 321
320 320 320 322 323 323 327 328 328 328 327 327 326 325 324 324 323 323 322 322 322 321 321 321 321 320 319 318 318 320 321 321
321 321 320 320 321 320 321 325 328 328 328 327 327 326 325 324 324 324 323 323 322 322 321 321 321 320 320 320 320 320 320 319

GFSFLT1_850_thetae_075.txt.gz
Theta_e
330 329 328 328 326 326 326 324 324 324 323 327 327 326 326 329 327 326 323 322 320 320 315 316 318 318 320 323 321 319 319 319
330 329 328 327 326 326 327 324 324 324 324 324 325 326 327 328 328 325 325 321 320 319 317 319 323 321 320 323 321 319 320 320
330 329 328 327 325 324 324 324 325 324 323 323 326 326 326 326 325 326 324 320 320 319 319 323 322 323 322 322 320 319 319 319
329 328 328 327 324 325 326 324 325 324 324 322 323 323 324 324 324 325 323 321 320 320 322 320 321 321 320 321 320 319 321 320
329 328 328 326 323 323 325 326 325 324 324 323 323 322 322 323 324 324 322 320 318 319 318 322 323 322 320 321 321 320 321 319
329 329 328 326 323 322 327 324 326 324 324 323 323 323 323 322 323 321 318 317 318 321 322 322 322 321 321 321 321 319 320 320
329 329 328 327 324 323 323 326 326 324 324 323 323 323 323 322 322 320 320 320 319 320 322 321 321 319 319 317 317 319 319 320
329 329 328 327 325 322 326 326 325 324 323 322 323 323 322 322 322 322 318 319 319 319 318 318 318 318 318 315 315 319 320 320
330 329 328 328 326 324 324 326 323 323 322 322 322 322 322 322 321 321 319 318 318 320 320 319 317 317 317 314 316 315 316 318
330 329 329 328 326 325 321 324 325 324 323 322 322 322 322 322 321 321 317 314 314 317 318 318 318 318 318 317 316 316 318 319
330 329 329 328 327 325 325 321 321 322 323 322 322 322 322 323 323 322 321 318 314 317 319 319 320 318 319 318 317 317 318 318
329 329 329 328 327 326 325 325 323 321 320 322 322 322 322 322 322 322 322 322 318 316 316 317 317 316 316 316 317 316 317 317
330 329 328 328 327 326 325 325 324 324 323 323 321 322 322 322 323 322 322 322 322 321 320 318 315 315 316 316 317 317 317 317
329 330 329 328 327 327 326 326 325 324 325 325 325 323 321 323 323 323 322 322 321 321 321 320 321 319 318 316 316 316 316 316
328 329 330 329 328 328 328 327 327 325 323 325 325 325 324 320 323 324 323 322 322 321 321 321 321 320 321 320 317 316 316 315
322 322 322 327 329 329 329 329 329 328 326 324 325 325 325 325 323 322 323 323 323 322 322 321 322 321 321 319 318 317 316 317
322 323 323 323 325 326 328 328 329 329 328 327 325 325 325 326 325 325 323 322 322 322 322 322 322 322 322 321 320 319 317 315
321 322 322 322 322 322 323 323 327 328 328 328 328 327 325 325 326 325 325 325 324 323 323 323 324 323 323 322 322 321 321 321
320 319 317 318 319 320 320 322 322 323 328 327 326 326 326 326 325 325 325 325 325 325 325 325 324 324 324 323 324 323 322 322

GFSFLT1_850_thetae_078.txt.gz
Theta_e
329 330 329 329 328 327 321 325 324 324 326 325 327 329 330 329 328 328 325 322 321 318 311 309 310 310 314 312 316 315 315 317
330 329 329 328 328 327 320 324 323 324 326 325 326 327 329 329 326 327 325 322 323 320 314 312 312 314 319 319 320 320 318 318
329 329 329 328 328 326 320 323 324 323 324 326 327 328 328 328 328 326 325 324 323 321 316 314 314 321 322 322 321 320 319 318
329 329 329 328 327 326 318 322 324 323 324 325 324 326 327 326 327 325 324 324 323 319 317 315 318 316 319 322 321 320 319 319
329 329 328 328 327 323 319 324 324 323 323 323 325 325 325 325 327 326 324 323 322 319 318 315 321 322 321 321 321 319 320 319
329 329 329 328 326 320 320 324 323 323 323 324 322 322 323 324 325 326 325 323 320 320 318 318 320 323 322 322 321 320 319 319
329 329 328 327 325 320 321 325 325 324 324 323 322 323 322 323 323 323 324 323 321 321 321 321 322 321 321 321 320 320 319 320
328 328 328 327 325 320 321 325 324 324 324 324 323 323 323 323 322 322 324 323 321 320 319 320 320 321 322 319 319 319 320 319
329 329 328 327 326 322 319 323 323 323 322 323 323 323 322 322 323 322 323 323 321 319 319 322 322 322 322 321 321 321 320 320
329 328 328 328 326 323 318 321 324 325 322 322 322 322 322 322 322 322 323 322 320 319 318 321 322 321 321 320 320 319 315 316
328 328 328 328 327 324 321 319 322 324 322 322 322 322 322 322 322 322 322 322 321 320 318 318 319 319 318 318 317 316 316 315
328 328 329 328 327 325 323 322 321 323 322 322 321 321 321 321 322 322 322 321 321 320 318 317 318 318 317 315 316 315 316 315
328 328 328 328 328 326 325 324 322 320 320 321 322 321 321 321 322 322 322 321 320 319 318 318 318 319 319 317 317 319 319 317
327 327 328 328 328 327 326 325 324 322 321 320 320 320 322 321 321 321 321 321 322 322 320 318 315 315 318 318 317 317 319 318
326 326 325 325 326 326 326 326 326 325 323 322 322 322 321 321 321 322 321 321 321 321 322 322 320 315 316 317 317 317 316 316
322 324 326 327 325 325 325 325 326 326 325 325 323 322 323 324 323 321 321 321 321 321 321 322 322 321 321 320 320 319 320 319
318 319 321 323 324 326 327 327 326 325 326 325 325 324 325 325 325 324 323 321 320 322 322 322 322 321 321 321 321 321 321 320
315 317 318 319 321 322 322 322 324 327 325 325 324 324 325 325 325 325 325 325 324 323 322 321 322 322 322 322 322 321 322 321
312 314 316 317 318 320 321 321 320 323 325 325 325 325 324 324 324 325 325 325 325 325 325 324 324 323 322 322 322 322 322 322

GFSFLT1_850_thetae_081.txt.gz
Theta_e
321 328 328 329 328 328 327 325 322 325 325 325 328 329 329 327 328 326 326 327 329 327 319 310 309 309 310 316 320 320 321 322
321 327 329 329 328 328 327 324 321 324 324 324 327 327 328 328 328 326 328 327 327 324 315 309 308 308 308 311 319 320 320 320
324 328 329 329 329 328 327 323 323 323 324 324 326 326 328 329 329 327 327 327 325 323 311 308 307 307 308 309 319 320 319 319
326 328 329 329 328 328 327 323 323 323 323 324 325 327 326 327 327 328 327 325 322 322 310 308 307 309 309 310 318 318 315 317
326 328 329 329 328 328 326 320 323 324 323 324 325 325 327 326 327 328 327 323 323 323 319 310 310 310 312 312 315 316 318 318
326 328 328 328 328 327 326 319 324 323 323 323 324 325 325 327 326 327 327 323 324 323 320 313 312 312 318 320 320 320 320 318
326 328 328 328 328 327 323 320 324 324 323 322 324 323 324 325 324 324 326 324 323 324 322 319 314 316 317 322 322 321 321 319
325 327 327 328 328 327 321 320 323 322 323 323 323 322 323 324 324 325 326 325 325 323 322 320 318 318 319 318 320 322 321 320
324 326 327 328 328 327 321 320 322 322 323 323 323 322 322 322 323 324 324 325 324 324 322 320 319 316 320 322 322 322 321 320
325 326 327 328 328 327 320 319 321 322 323 323 323 323 322 322 322 322 321 322 324 324 322 321 319 319 319 322 321 320 319 318
325 326 327 328 328 326 321 318 320 321 321 322 323 323 323 322 322 322 322 322 323 324 323 321 320 320 320 321 320 321 319 318
325 326 327 328 327 326 323 319 319 320 321 322 322 323 322 322 322 322 322 322 322 322 322 321 320 321 322 322 321 321 321 320
325 326 327 327 327 326 324 320 319 319 320 322 321 322 322 322 322 322 322 322 322 322 321 320 319 318 319 321 321 320 320 319
325 325 325 326 326 325 324 323 322 321 321 320 321 321 321 321 321 322 322 322 322 321 321 321 321 320 319 318 317 318 317 316
323 324 325 325 325 325 325 324 324 323 322 321 321 321 321 321 321 321 321 321 321 321 321 321 320 320 319 318 319 320 320 318
319 321 323 324 325 325 325 325 325 325 324 323 323 322 321 321 321 321 321 320 321 321 320 320 321 321 321 319 318 317 316 317
313 316 320 322 323 324 324 325 325 325 325 325 325 325 324 323 323 323 322 321 321 321 320 321 321 320 321 321 321 321 321 319
308 311 313 316 318 319 322 323 325 325 324 323 323 323 324 324 324 324 324 323 323 323 322 321 321 320 320 320 321 321 321 321
306 308 310 313 315 317 318 320 323 323 323 322 323 323 323 323 323 323 324 324 324 324 324 323 323 323 322 322 322 322 322 322

GFSFLT1_850_thetae_084.txt.gz
Theta_e
319 317 318 324 328 329 329 328 326 325 325 331 328 327 327 327 326 327 325 325 325 325 324 324 326 320 325 323 320 321 321 321
319 318 317 324 328 329 328 327 327 325 325 328 327 326 328 329 327 325 326 325 326 326 326 325 326 317 325 324 320 320 320 321
318 318 318 325 329 328 328 328 326 322 323 324 326 326 326 327 328 327 326 326 326 327 326 326 324 315 323 321 319 319 320 322
317 318 320 326 328 328 328 328 326 321 323 323 326 325 327 326 327 327 327 325 326 326 327 327 321 312 318 318 318 319 320 321
316 319 322 326 328 328 328 327 324 321 323 324 324 323 325 326 327 327 325 326 327 327 327 325 316 311 311 313 317 319 320 320
317 318 323 326 328 328 328 326 322 320 323 322 323 324 326 325 327 327 325 327 325 326 324 319 311 309 309 309 314 319 319 320
321 322 324 326 327 329 328 326 320 322 323 323 325 323 324 325 326 327 326 326 327 324 324 317 309 308 308 308 309 317 319 319
320 321 325 327 327 328 327 326 319 322 323 323 325 323 324 324 325 326 326 327 326 320 321 320 319 308 309 310 309 315 319 317
319 319 323 326 327 328 327 325 319 322 324 323 323 325 323 324 324 324 326 326 325 323 325 322 321 315 312 311 317 317 319 320
319 320 324 325 327 328 327 325 318 321 323 323 323 323 322 322 323 324 324 325 325 324 323 321 322 321 317 315 315 318 319 319
319 322 324 324 326 328 327 324 317 320 321 322 323 323 322 322 322 322 323 323 325 325 325 324 323 321 320 317 320 319 318 317
323 324 324 325 326 327 326 322 318 320 321 322 322 323 322 322 322 322 322 322 321 322 322 323 323 321 321 320 319 319 321 322
324 324 323 324 326 326 325 322 318 320 321 321 320 321 322 321 321 321 321 322 322 321 322 322 323 321 321 320 320 320 320 321
323 323 323 324 325 325 324 322 319 319 320 321 322 320 320 320 321 321 321 321 321 321 321 322 321 321 321 321 320 320 320 321
323 323 324 324 324 324 325 323 321 321 321 320 320 320 320 320 320 320 321 321 321 321 321 321 321 321 320 319 319 319 319 320
316 319 321 323 323 323 324 324 323 323 323 323 322 321 321 320 320 320 320 320 320 321 321 321 321 321 321 321 320 319 319 319
309 312 316 319 322 323 323 324 325 324 324 324 323 323 322 322 322 321 321 321 321 321 320 320 320 320 320 320 320 320 321 321
303 304 307 311 316 320 322 322 324 324 323 323 322 323 323 323 323 323 323 323 323 323 322 322 322 321 321 320 320 320 320 320
299 301 303 307 310 318 318 318 320 322 322 321 322 322 322 323 323 323 323 322 322 323 323 323 323 322 322 322 322 322 321 322

GFSFLT1_850_thetae_087.txt.gz
Theta_e
317 317 318 319 317 322 329 329 330 329 328 324 328 328 329 327 329 328 327 327 327 326 326 326 326 323 324 325 325 322 321 322
317 317 319 319 318 319 328 329 330 329 327 325 327 326 326 327 327 328 326 326 327 326 326 325 323 323 324 324 325 322 321 321
317 317 318 318 318 318 327 329 329 328 327 326 328 326 325 327 326 327 326 325 326 326 326 325 320 325 324 325 324 321 321 321
316 317 318 318 318 319 326 329 329 327 327 323 327 325 326 326 325 327 327 324 325 325 325 325 324 325 324 324 323 321 321 321
317 318 318 318 319 323 328 329 328 327 325 321 323 324 324 325 326 326 326 327 326 325 327 325 325 325 326 323 324 323 320 320
317 318 318 318 321 325 328 328 328 327 321 322 322 324 323 323 324 326 326 327 325 325 325 326 326 326 326 321 325 323 320 320
318 317 318 320 323 326 328 328 328 326 319 324 325 322 324 325 326 326 326 326 324 325 326 325 326 327 324 317 323 322 319 319
317 319 320 323 323 326 328 328 327 325 320 323 324 323 323 325 325 326 326 325 325 325 326 326 325 323 317 313 317 320 318 319
318 321 323 324 323 325 328 328 327 322 322 323 325 323 324 324 324 325 326 325 322 321 324 324 318 313 311 309 310 312 314 313
321 319 321 323 323 325 328 327 327 320 324 324 324 323 323 323 322 324 325 325 325 322 323 320 321 319 319 312 308 309 310 313
320 318 320 323 323 325 327 327 326 320 324 324 324 323 323 323 323 322 324 325 325 325 324 322 321 321 321 317 310 310 311 311
322 323 324 323 322 326 326 326 324 320 326 322 322 321 323 322 322 322 323 324 324 325 325 323 324 322 321 321 316 312 315 315
323 324 324 322 323 324 327 325 322 320 323 321 321 321 320 321 321 321 322 322 322 322 322 323 323 322 322 322 320 313 313 315
321 322 320 320 321 325 326 324 320 319 321 322 320 320 321 321 321 320 321 321 321 321 321 321 322 323 322 321 322 320 318 317
319 320 320 321 320 325 324 322 319 319 320 321 321 320 320 320 320 320 320 320 321 321 321 321 321 322 321 322 322 321 321 321
309 311 318 320 321 322 322 321 320 320 320 321 320 320 320 320 320 320 320 320 320 320 321 321 321 321 321 321 321 321 320 320
303 305 310 316 318 320 322 321 322 322 321 322 322 322 321 321 321 321 320 320 320 320 320 320 320 320 320 320 320 320 319 320
299 301 303 307 314 318 321 322 322 322 322 321 321 322 322 322 322 321 322 321 321 321 321 321 321 321 321 320 320 320 319 319
297 298 300 303 307 315 316 319 321 321 321 320 320 321 321 320 320 321 321 322 321 321 321 322 321 322 322 322 322 322 322 321

GFSFLT1_850_thetae_090.txt.gz
Theta_e
318 318 319 319 324 328 332 332 328 331 330 331 331 330 325 325 328 328 328 328 326 327 328 328 327 326 326 323 325 325 326 324
318 318 319 319 319 323 328 333 327 331 331 332 331 327 324 325 328 328 327 326 327 327 328 327 327 326 325 322 324 325 325 324
317 318 319 322 321 319 328 333 327 330 331 331 329 326 325 324 325 326 327 328 329 328 327 327 327 326 325 322 324 324 324 323
316 317 318 323 321 321 329 332 328 330 332 330 328 326 325 325 325 326 327 327 327 326 327 326 326 325 325 323 324 325 324 322
317 317 318 322 326 326 329 331 331 330 330 330 327 327 325 326 326 326 327 327 326 326 325 326 326 325 323 323 324 324 324 323
318 317 318 321 327 327 327 331 331 330 329 329 326 325 326 327 325 325 325 325 326 324 325 325 326 322 323 324 324 324 323 323
320 319 319 324 327 324 325 330 330 329 328 327 324 326 324 325 325 325 325 325 325 325 324 325 325 323 322 325 324 324 323 323
324 324 325 326 327 323 325 329 329 327 327 324 320 323 325 324 324 326 326 326 325 326 325 326 326 325 325 325 325 324 323 323
325 324 327 327 326 327 326 326 328 325 326 320 323 324 324 324 325 325 325 324 325 324 323 325 324 324 325 325 325 323 324 324
326 325 326 328 326 326 329 327 328 325 324 320 323 323 323 324 324 324 324 325 324 323 323 324 325 326 325 324 321 318 322 323
326 323 326 328 327 324 327 327 327 323 321 322 322 323 323 322 323 324 324 323 324 323 323 324 324 321 317 314 313 312 311 316
325 325 326 327 326 324 325 326 324 322 320 324 322 322 322 322 322 323 323 324 324 321 322 321 321 320 317 320 321 319 312 309
323 323 325 325 323 321 323 325 324 321 321 323 323 323 322 322 322 325 323 324 324 324 321 320 322 320 320 322 321 320 314 310
320 321 321 321 321 321 322 323 324 321 325 324 322 322 322 322 321 322 322 323 323 323 323 324 323 322 322 322 322 322 321 315
309 317 319 321 321 321 322 323 325 324 325 322 321 321 321 321 321 321 321 322 322 322 322 322 322 322 322 322 322 322 321 320
303 310 314 316 320 321 322 322 324 322 322 322 321 320 320 320 321 321 320 321 321 321 321 321 322 322 322 322 321 322 322 321
300 305 307 311 314 319 321 321 322 323 323 323 322 321 322 321 320 320 320 320 320 321 321 321 321 321 321 321 321 322 322 322
300 298 301 304 309 313 319 320 320 321 321 321 321 320 321 321 321 321 320 320 320 319 319 319 320 320 320 320 320 320 320 320
299 296 296 301 304 309 313 317 319 320 320 321 321 321 321 320 321 321 321 321 321 321 321 321 321 321 321 320 320 319 319 319

GFSFLT1_850_thetae_093.txt.gz
Theta_e
319 320 320 319 319 323 327 334 338 334 335 333 330 331 330 330 330 330 327 329 330 329 329 329 328 328 326 327 326 324 325 325
318 319 320 320 320 322 328 333 338 335 340 335 331 332 331 332 332 330 326 327 330 329 328 327 327 327 327 326 326 324 324 325
317 317 319 320 321 322 328 332 337 335 334 338 335 333 334 331 330 326 324 328 328 328 327 328 327 327 327 326 324 323 324 325
318 318 318 320 321 324 327 330 335 335 333 335 335 334 333 333 327 327 326 328 328 328 326 327 327 327 327 326 325 322 323 324
321 319 318 319 320 325 328 330 335 334 334 335 336 332 331 329 328 326 325 325 327 328 327 328 328 327 326 326 325 322 322 323
323 321 319 318 319 324 329 331 334 334 335 335 334 333 333 330 327 327 326 326 326 327 327 327 327 324 325 325 323 321 322 323
325 322 321 319 320 327 331 332 333 334 334 334 334 333 331 328 330 327 327 328 326 326 326 326 325 325 326 325 323 321 323 324
326 325 322 321 322 329 332 332 333 334 333 333 333 332 329 328 329 327 327 325 326 325 326 325 324 325 325 325 321 324 324 324
328 327 327 326 327 331 329 331 332 333 333 332 331 330 328 329 328 325 325 326 325 325 325 325 324 324 325 324 323 324 323 323
329 327 327 329 331 328 325 331 332 332 332 331 329 328 328 327 326 325 326 325 325 324 325 325 324 325 324 321 323 324 324 323
323 328 326 330 329 325 326 330 331 330 330 329 327 327 326 325 324 324 325 324 324 323 324 324 324 324 324 322 323 324 324 323
317 324 328 330 329 325 324 329 330 329 328 326 326 326 325 324 324 323 324 324 322 322 322 321 322 323 324 324 324 324 323 319
313 321 325 328 326 324 325 328 328 326 326 325 326 326 324 323 323 323 324 323 322 323 322 322 322 322 321 320 318 315 314 319
312 314 321 324 323 324 324 325 326 325 324 323 324 326 324 324 323 323 324 323 323 323 322 322 321 320 318 319 319 320 321 322
307 308 312 320 322 322 322 324 324 324 322 323 324 325 324 322 322 323 324 323 323 323 322 321 322 321 321 321 320 320 322 322
303 303 306 311 319 320 321 322 323 322 322 322 322 324 323 323 322 322 322 323 323 323 323 322 323 322 322 322 322 322 322 322
299 301 303 305 312 318 320 323 324 324 322 323 322 323 321 322 322 322 322 322 322 323 322 322 322 322 322 322 322 323 322 322
295 297 298 300 304 311 314 319 323 324 324 321 321 322 321 320 320 320 321 321 321 321 323 323 323 323 322 322 322 322 322 322
293 295 296 298 299 306 309 314 321 321 322 323 322 322 322 322 322 323 323 321 321 320 320 320 321 321 322 321 321 321 322 321

GFSFLT1_850_thetae_096.txt.gz
Theta_e
320 320 320 321 320 319 322 327 337 334 340 337 343 343 333 333 330 328 327 328 326 329 331 331 330 329 328 328 327 327 326 324
317 319 320 320 320 319 321 327 334 330 335 337 339 342 340 337 332 330 330 329 328 328 332 330 330 329 329 327 327 327 325 324
316 316 318 319 320 320 321 328 333 332 334 337 336 340 339 338 333 330 330 335 330 328 327 329 329 328 328 328 325 327 325 324
318 318 318 318 319 320 321 327 334 334 334 337 334 337 336 335 337 331 333 335 333 326 327 329 329 328 326 325 327 326 324 324
323 322 321 318 320 320 322 323 328 334 336 337 333 335 334 333 332 334 331 328 327 326 326 328 328 327 327 326 326 325 324 324
325 324 323 322 319 320 322 323 327 334 334 335 334 335 334 333 332 331 331 329 327 326 328 327 327 327 326 327 326 327 324 324
326 325 324 322 320 320 323 325 328 333 335 334 337 336 335 332 332 330 328 327 325 325 328 327 327 327 327 328 326 325 323 323
328 327 326 323 321 319 326 326 330 335 335 333 338 336 333 334 331 329 328 328 326 327 326 326 327 326 327 326 326 324 324 322
324 329 328 326 322 327 328 330 331 336 335 336 335 334 333 332 330 328 328 327 327 326 325 326 324 325 326 325 324 325 325 321
321 324 327 328 332 332 332 332 332 334 334 333 332 332 331 330 327 327 328 325 326 326 325 325 325 325 325 324 324 325 324 322
319 319 324 330 331 331 330 329 332 333 332 332 331 330 329 327 327 327 325 326 325 325 325 325 325 325 324 324 324 325 322 323
313 317 324 329 330 329 326 331 332 332 331 330 329 327 326 326 326 324 324 325 324 324 324 323 325 325 325 324 324 323 321 323
309 316 319 324 325 326 325 329 330 330 329 328 326 325 325 324 325 323 324 323 323 322 322 322 323 324 324 324 324 324 324 324
305 312 314 317 322 324 323 326 328 328 327 326 324 324 324 323 323 323 323 323 321 321 321 321 321 323 324 324 323 321 322 323
301 303 308 311 316 320 322 324 326 326 326 325 323 323 323 322 322 323 323 322 323 322 322 322 321 322 322 322 322 321 320 316
299 297 300 306 310 316 320 323 324 324 323 323 324 324 324 323 324 324 324 323 323 322 322 322 321 321 320 319 319 319 319 319
295 294 296 300 304 307 312 319 322 323 323 322 323 323 325 324 323 323 323 324 323 323 323 322 322 321 321 321 321 320 320 320
292 291 293 295 300 303 306 309 316 321 322 322 322 324 323 324 323 322 322 323 323 323 323 323 322 322 321 322 322 321 321 321
289 290 291 293 296 301 302 303 308 314 322 322 322 321 320 320 321 322 321 321 322 323 322 323 323 323 322 322 322 321 321 321

GFSFLT1_850_thetae_099.txt.gz
Theta_e
318 318 319 319 319 320 319 319 323 338 338 339 338 337 330 336 339 336 333 331 331 330 331 332 332 331 331 330 328 326 327 327
317 316 318 319 319 319 320 319 324 339 340 338 338 337 335 338 334 335 330 335 332 331 330 334 332 331 330 329 327 327 327 327
315 315 315 316 319 320 321 320 323 335 335 333 335 337 334 337 336 336 332 332 335 337 333 331 330 329 329 329 328 327 327 327
314 314 315 316 316 320 320 321 323 335 336 336 337 337 335 335 334 333 335 333 335 336 333 330 329 329 328 328 328 327 327 326
317 323 323 322 319 318 320 321 327 332 333 332 331 330 333 333 334 333 333 334 333 331 330 329 327 326 327 327 328 326 326 326
327 326 325 324 323 321 320 320 329 332 333 330 328 330 333 330 332 332 332 332 330 332 331 328 326 326 326 328 325 325 325 325
328 328 327 326 325 322 321 323 326 329 330 326 325 330 333 333 332 331 331 330 330 329 329 326 325 325 327 328 327 325 326 326
323 327 328 328 326 325 321 323 326 329 326 327 328 333 332 333 333 332 331 329 328 326 328 326 325 327 325 324 326 326 326 325
320 323 326 329 330 325 321 323 324 326 324 329 334 334 334 333 333 333 331 329 326 327 326 326 324 325 326 326 325 326 325 326
317 322 326 331 332 331 328 329 329 328 331 332 334 335 333 333 331 331 329 327 326 327 326 325 326 327 327 326 326 325 326 325
313 316 321 325 328 329 331 331 332 331 331 333 332 333 333 331 330 329 328 326 327 326 326 327 325 325 326 325 326 326 325 325
305 311 314 318 324 324 325 328 329 331 331 332 332 332 331 330 328 327 326 326 324 325 325 325 324 325 325 325 325 324 324 325
302 305 309 315 320 324 323 326 330 332 332 331 330 330 328 326 326 325 325 324 324 323 323 324 323 324 325 325 325 323 324 325
300 302 303 307 311 318 321 324 327 329 330 330 329 327 326 324 324 324 323 323 322 322 322 322 322 324 324 324 324 324 325 324
296 297 300 302 306 311 318 321 325 325 327 327 327 325 323 323 323 322 322 322 321 321 321 321 321 322 324 324 324 324 324 323
293 293 295 299 302 307 311 317 322 324 324 325 324 323 323 322 322 322 322 321 322 321 321 321 321 321 322 323 324 324 323 322
291 290 293 295 297 300 306 311 318 322 323 323 324 324 324 323 322 323 323 323 323 322 322 321 321 321 321 320 320 323 322 321
289 289 290 292 294 296 300 305 310 316 321 323 323 324 323 324 324 324 323 323 323 323 322 321 321 321 321 321 320 319 319 319
289 290 290 291 293 295 297 301 306 309 310 316 320 322 324 324 324 324 324 322 323 323 322 321 321 322 322 320 320 320 320 319

GFSFLT1_850_thetae_102.txt.gz
Theta_e
315 316 317 317 317 318 318 318 318 318 319 328 339 338 334 333 331 333 335 332 332 331 330 331 333 333 332 333 330 329 329 328
314 315 317 318 318 318 319 319 319 319 320 323 337 336 337 336 334 333 337 336 333 333 332 333 333 332 330 329 329 327 328 327
313 313 313 314 315 316 318 319 319 319 319 320 332 332 336 336 336 335 337 338 337 336 334 334 333 330 330 329 328 329 329 327
312 313 313 313 313 314 315 318 319 319 320 323 333 333 333 336 336 334 336 337 335 333 333 332 331 329 329 328 327 328 327 326
311 312 312 319 321 319 316 316 319 320 321 323 330 332 332 329 335 334 334 333 332 332 332 331 331 329 328 327 326 326 327 327
323 325 325 325 324 324 321 318 320 320 321 323 333 333 330 331 334 333 333 332 332 332 330 330 329 328 327 327 325 326 327 327
323 325 326 326 325 325 325 323 322 323 322 327 333 332 332 331 333 333 333 331 331 330 330 329 328 328 327 327 326 326 326 326
318 325 328 329 327 326 326 324 327 328 329 330 334 332 330 328 330 330 328 330 330 330 329 328 327 327 327 326 325 327 325 326
314 316 321 326 328 327 325 329 325 329 329 331 333 330 329 331 332 331 329 331 331 329 329 327 326 325 324 324 325 325 325 324
312 314 318 323 323 326 328 332 339 333 329 330 329 330 332 333 332 330 331 332 331 329 326 326 325 324 324 325 326 326 324 324
307 309 313 317 320 323 326 329 331 331 327 328 327 330 331 332 334 333 331 330 329 327 326 326 325 325 324 324 325 324 325 324
298 305 309 313 317 321 324 327 329 331 330 328 328 330 331 334 336 331 329 328 328 326 327 326 324 326 324 324 325 326 326 325
296 300 305 309 313 318 321 325 327 328 329 328 328 329 332 332 330 329 327 326 325 326 325 324 324 324 325 325 324 325 326 325
293 296 299 303 305 312 317 322 325 328 329 330 330 331 330 329 328 326 324 324 323 322 322 322 323 323 324 324 324 325 325 325
291 292 295 299 302 306 312 317 319 322 326 327 329 329 328 327 325 323 322 322 321 322 321 321 321 321 322 323 323 324 324 324
290 290 292 295 298 302 307 312 316 317 324 325 325 325 324 323 322 322 321 321 321 321 321 321 321 321 321 321 324 324 323 323
289 290 291 292 295 298 301 305 310 311 319 324 324 324 324 323 322 321 322 321 322 321 321 321 321 321 321 321 322 324 323 324
287 288 289 290 293 295 297 300 303 308 311 319 322 324 324 323 322 322 323 323 322 322 321 321 321 321 321 320 320 321 321 323
288 288 289 290 292 294 296 299 301 303 307 309 314 316 321 323 324 324 322 322 322 322 321 321 321 321 321 320 320 319 319 320

GFSFLT1_850_thetae_105.txt.gz
Theta_e
313 313 314 314 315 315 316 316 317 325 336 331 332 333 334 337 330 329 327 325 325 328 331 330 331 332 332 333 331 330 329 328
311 312 312 313 313 315 317 317 317 317 330 326 331 332 328 332 337 332 331 331 328 329 331 333 334 334 333 333 330 329 328 329
311 311 311 311 312 313 314 316 317 317 318 318 322 322 324 325 335 335 333 334 334 332 332 334 335 335 334 333 330 328 327 329
312 311 311 311 311 312 312 313 315 317 318 320 322 329 329 335 336 334 334 334 335 334 335 334 334 333 332 330 329 328 327 327
317 314 312 312 312 312 314 313 314 316 318 319 321 321 323 327 331 329 332 332 335 335 334 334 333 332 331 330 329 328 327 326
313 317 321 323 322 322 321 317 315 315 316 319 320 323 322 322 331 329 327 330 334 334 334 333 332 331 330 330 328 327 327 326
308 310 314 322 325 325 323 321 318 316 316 319 322 321 324 327 333 331 329 331 334 331 333 331 331 330 329 329 328 327 327 326
304 304 309 318 325 325 325 323 324 322 320 319 322 327 326 326 330 331 330 330 333 332 331 331 330 329 329 328 328 327 327 327
300 302 305 311 322 325 325 329 335 335 332 332 327 327 329 331 333 333 329 328 331 333 330 330 329 329 329 328 328 328 328 325
298 299 303 311 317 322 325 328 334 336 336 338 334 331 330 332 330 329 329 331 329 329 329 329 329 328 327 326 325 326 326 324
295 296 302 307 313 319 323 326 330 334 334 337 335 330 328 329 327 329 332 330 330 330 331 330 328 327 325 324 324 324 324 324
293 293 301 305 309 315 319 323 325 329 333 336 333 328 327 326 328 329 331 331 329 328 328 328 326 324 324 323 323 323 324 324
291 293 298 299 304 312 315 320 324 325 329 327 328 327 327 327 327 329 331 330 328 327 327 326 324 323 323 322 323 325 325 325
291 291 294 297 301 305 309 315 320 323 325 326 326 326 327 326 329 330 328 326 325 325 325 324 324 323 323 322 323 324 324 325
289 290 291 294 298 301 305 309 316 322 324 327 328 328 328 329 328 328 326 324 323 322 320 321 323 321 322 321 321 322 323 323
288 288 289 292 295 298 302 306 311 315 317 323 325 325 325 325 324 323 322 322 321 320 320 322 322 320 320 321 321 321 322 323
287 288 288 289 291 295 298 302 305 308 310 312 321 324 325 324 323 322 321 321 320 320 319 319 321 320 320 320 320 321 322 323
287 287 288 288 290 293 295 298 302 303 304 309 312 319 322 323 323 322 321 321 320 321 322 321 321 321 320 320 320 320 320 322
286 286 288 288 291 292 293 296 298 301 303 304 307 307 312 315 318 320 321 320 321 321 321 321 321 321 321 321 320 320 319 319

GFSFLT1_850_thetae_108.txt.gz
Theta_e
309 310 311 311 311 312 313 314 314 315 316 323 334 335 333 331 335 330 323 322 323 323 325 330 330 332 332 333 333 333 331 330
308 309 310 310 310 311 312 313 314 314 315 316 323 334 334 330 328 334 328 326 324 324 325 328 331 331 331 331 332 331 330 329
307 309 311 311 311 311 311 311 312 313 314 315 317 318 334 326 324 333 333 331 328 326 325 326 330 331 332 332 332 331 329 328
313 314 313 312 311 311 310 311 311 312 314 315 322 327 334 334 330 328 334 334 332 329 329 328 328 330 332 333 332 330 329 327
313 314 315 315 315 314 312 311 311 312 312 315 323 328 327 327 324 321 328 335 334 332 332 332 331 331 332 332 331 330 329 327
309 311 312 314 318 320 318 314 313 313 313 314 317 325 322 320 319 325 324 334 334 332 332 334 332 332 333 332 331 329 328 327
305 307 313 314 316 319 322 319 316 316 316 314 316 321 320 322 325 325 326 332 333 330 331 333 332 332 332 331 330 329 329 328
300 302 308 310 312 315 321 326 324 318 315 318 323 324 326 321 325 327 327 332 330 327 328 333 333 330 332 330 329 329 329 327
296 300 299 303 307 313 318 324 330 333 328 327 333 330 329 331 329 329 329 331 331 327 327 329 332 329 330 329 329 329 328 328
293 296 297 301 304 308 316 320 326 331 337 334 333 334 335 333 332 332 332 331 332 329 329 332 332 329 329 329 328 328 328 327
291 294 296 299 299 310 312 318 323 327 331 333 333 333 335 331 332 332 332 331 327 330 329 331 331 329 328 329 328 327 327 326
290 292 292 296 300 307 313 316 321 324 328 329 333 332 335 332 333 330 329 328 329 329 327 328 329 328 327 326 325 324 323 322
289 290 290 294 296 300 305 311 315 320 323 328 331 333 335 332 330 329 329 328 329 328 329 328 328 327 325 324 322 323 323 323
288 289 289 291 296 300 304 308 311 316 321 326 328 330 331 330 329 327 326 326 328 330 328 327 326 324 323 322 322 322 322 324
287 288 288 289 292 296 300 303 306 313 316 323 324 325 326 327 327 326 327 328 326 325 324 324 323 321 321 321 320 320 321 321
286 286 287 289 291 294 299 301 304 308 312 319 323 325 325 327 326 325 323 323 322 322 320 319 318 319 321 320 320 320 320 320
286 287 287 287 289 291 296 297 300 303 307 306 310 312 319 324 323 322 321 321 321 320 319 319 319 318 320 319 319 320 320 319
285 286 286 286 288 290 293 295 298 300 301 304 307 310 307 313 319 320 321 320 320 319 318 318 317 318 319 319 318 320 320 320
285 286 287 288 289 291 292 295 295 296 299 302 302 305 304 306 308 313 316 316 316 315 313 317 316 317 319 319 320 320 320 319

GFSFLT1_850_thetae_111.txt.gz
Theta_e
306 307 308 309 309 310 311 312 312 312 313 314 315 323 333 336 333 332 332 326 323 322 322 323 328 330 333 333 335 334 334 333
306 306 307 307 309 310 310 310 311 311 313 313 314 315 322 333 334 330 332 334 328 323 323 322 326 328 328 331 333 333 335 331
309 308 308 309 310 310 311 311 311 310 311 313 314 314 315 323 332 331 330 331 334 326 324 323 323 327 328 329 331 332 334 331
310 310 311 312 314 313 311 311 311 310 310 312 318 321 325 323 332 335 330 327 332 332 325 325 324 325 326 327 328 329 332 330
304 305 306 309 312 312 313 312 311 311 310 310 322 321 329 330 318 322 331 326 328 333 331 328 326 326 327 327 328 329 331 330
299 299 302 307 310 312 314 314 314 312 311 312 313 322 321 328 320 319 327 326 326 327 333 331 329 328 327 327 329 331 330 329
298 298 300 303 307 310 312 314 317 316 313 314 314 316 326 330 327 322 326 331 326 328 331 333 332 332 331 331 331 332 330 330
294 295 297 300 303 305 308 311 316 320 319 316 317 324 329 330 327 324 324 331 328 323 327 332 332 331 330 332 332 331 331 330
292 292 294 297 299 302 303 307 315 320 325 320 326 326 333 331 331 332 330 330 326 326 325 330 328 327 327 332 332 330 330 329
291 291 291 295 296 300 299 306 313 318 324 327 328 329 331 335 332 333 332 330 328 327 327 327 327 326 328 333 331 330 330 329
290 290 290 293 294 296 299 304 310 317 323 327 330 330 331 332 333 333 333 332 331 330 332 330 327 326 331 333 329 329 328 328
288 289 289 290 293 294 297 304 311 317 321 327 331 331 331 332 333 333 333 333 332 332 332 330 329 329 334 332 329 327 328 329
288 288 288 289 291 292 294 309 312 314 317 324 329 331 330 331 331 333 334 333 333 332 330 329 327 329 331 329 328 327 326 325
287 287 287 287 288 290 296 299 304 313 314 320 326 327 329 329 330 332 333 331 330 328 328 328 329 329 328 328 326 324 323 323
286 286 286 287 289 294 294 296 302 307 310 317 320 323 325 325 327 329 328 329 329 328 328 328 328 327 326 324 323 322 321 321
285 285 286 287 289 291 293 295 299 301 305 313 314 316 321 323 325 325 325 324 324 324 323 323 323 323 322 321 320 320 320 320
284 285 286 286 288 291 292 293 296 298 298 302 306 308 313 320 320 321 321 321 321 321 320 320 319 318 319 319 319 318 320 320
284 285 286 287 287 289 290 292 295 297 298 299 303 303 303 305 306 311 317 317 319 320 318 318 316 316 317 318 318 318 317 317
285 286 288 289 290 290 292 294 294 294 295 296 299 299 300 304 304 304 305 305 312 312 314 314 313 315 317 318 317 317 316 317

GFSFLT1_850_thetae_114.txt.gz
Theta_e
308 308 309 312 313 312 308 309 310 310 317 331 333 333 336 338 337 334 331 328 325 325 335 332 327 331 333 334 336 336 335 335
313 314 314 314 314 313 310 309 311 310 315 322 329 333 333 334 337 336 335 332 330 328 330 325 322 323 329 333 335 336 335 334
310 310 310 311 311 312 313 313 313 314 316 315 325 329 332 328 332 333 337 336 332 331 331 330 324 323 330 331 332 335 335 334
306 307 307 307 308 309 310 311 312 312 314 318 316 327 330 332 332 335 335 334 332 328 329 332 328 324 324 332 332 333 335 334
303 303 303 304 304 305 307 310 312 312 313 316 318 320 328 330 332 330 317 324 333 329 328 330 333 326 324 325 330 331 332 332
301 300 300 301 302 302 305 309 313 313 311 314 319 318 325 329 331 332 326 316 327 335 328 331 332 331 325 325 331 331 330 331
300 299 298 299 299 300 307 308 311 314 313 313 315 322 322 327 329 332 332 324 317 323 334 334 332 332 329 327 328 330 330 330
297 296 296 296 296 299 304 307 309 311 314 314 316 317 324 328 329 332 333 333 332 325 331 333 332 332 332 330 329 330 329 330
295 294 294 293 293 294 298 302 305 309 312 314 317 319 324 327 331 331 333 334 335 334 328 331 331 331 332 331 331 330 330 331
293 292 292 292 291 292 296 299 304 306 308 311 319 321 326 329 332 332 333 334 333 336 336 334 331 329 330 329 328 330 330 329
291 290 289 290 290 292 296 298 300 301 305 310 320 323 327 333 332 331 333 333 334 333 332 331 332 327 329 329 329 328 331 331
289 288 288 288 290 290 292 297 296 300 304 310 319 326 328 333 329 330 332 334 333 335 332 332 333 334 332 329 328 328 330 330
288 287 287 287 289 289 292 293 294 298 303 311 322 330 331 330 330 330 331 332 334 335 335 331 333 336 334 330 328 331 332 330
288 287 286 286 287 288 291 290 294 298 303 310 320 327 328 329 329 329 330 331 331 330 332 331 331 332 331 328 328 332 330 328
287 286 286 286 286 287 289 292 295 299 303 308 314 320 323 326 327 329 329 329 328 329 327 327 329 329 328 329 329 329 328 326
287 286 286 286 286 288 290 293 296 300 299 303 304 307 313 318 322 324 324 325 326 326 327 328 327 328 327 326 325 325 324 323
286 285 285 286 286 287 289 292 294 296 300 301 300 303 304 304 310 314 320 322 322 323 324 322 321 322 323 323 322 321 321 320
284 285 285 285 286 287 288 291 294 295 295 297 298 300 302 301 302 301 304 307 311 313 314 315 316 316 318 318 319 319 318 318
283 284 284 285 285 287 288 290 293 295 294 294 296 298 299 300 302 301 301 298 302 304 306 306 310 310 316 315 317 317 317 317

GFSFLT1_850_thetae_117.txt.gz
Theta_e
314 315 316 316 317 317 317 318 320 320 316 319 330 335 336 338 338 337 336 336 324 326 338 335 328 333 339 338 337 338 337 339
313 312 312 313 314 314 315 316 317 319 321 317 320 331 334 336 335 339 338 338 339 336 336 336 331 326 328 336 337 338 336 337
310 310 310 310 310 311 312 312 313 315 317 320 318 320 328 333 334 335 339 340 339 339 338 338 339 333 328 339 336 337 336 335
309 308 307 307 307 308 308 309 310 312 313 315 318 319 320 328 332 334 337 340 341 340 338 335 338 334 331 333 333 339 336 335
306 306 305 305 304 306 306 306 307 309 311 313 316 318 320 322 330 333 333 338 339 339 340 339 338 334 333 331 327 329 338 337
304 303 302 302 302 303 303 303 304 306 308 309 312 316 319 321 321 332 332 335 336 338 339 339 339 337 331 330 330 329 333 337
301 300 299 299 299 299 299 300 302 303 304 305 307 310 315 319 322 325 331 332 333 335 337 337 337 337 334 331 331 328 330 332
299 297 296 296 296 296 296 296 297 299 300 303 308 310 311 315 319 322 330 332 333 332 335 340 337 336 331 331 332 330 332 330
296 295 294 293 293 293 292 292 293 295 301 306 310 311 312 312 317 316 326 332 332 334 333 334 339 335 335 333 333 331 331 329
294 293 292 290 290 290 290 291 293 298 302 307 308 310 314 315 317 319 323 331 333 334 334 333 330 336 335 334 333 331 331 330
292 291 289 288 289 288 288 291 292 296 298 301 305 310 314 316 318 322 325 329 333 332 334 332 332 333 336 336 333 331 332 331
291 289 288 288 288 288 289 291 293 296 298 303 305 307 313 318 321 324 327 330 330 332 333 332 331 331 333 337 334 330 334 332
291 289 288 288 288 288 289 290 293 294 299 301 300 307 314 322 328 328 330 330 330 331 333 332 331 330 332 332 335 335 330 331
290 289 288 288 288 288 289 290 291 295 297 295 299 307 318 326 325 324 327 327 329 331 332 331 332 332 331 332 333 331 333 330
289 288 288 288 288 288 288 291 291 292 295 292 296 306 315 320 322 325 328 329 330 330 331 332 331 331 332 331 331 333 330 327
288 287 287 287 288 289 288 289 291 291 293 296 296 301 305 309 313 315 318 321 324 324 325 328 329 329 328 329 328 329 329 329
287 287 287 286 287 288 289 289 289 291 292 294 297 299 302 301 302 302 308 308 311 314 318 321 323 324 324 324 326 325 326 326
286 286 285 285 287 287 288 289 291 291 291 291 293 294 299 299 300 301 301 301 302 304 305 309 314 319 318 320 319 319 319 320
284 284 284 284 286 285 287 287 291 292 292 291 293 296 294 295 295 297 299 298 298 300 299 300 303 303 307 309 312 310 313 308

GFSFLT1_850_thetae_123.txt.gz
Theta_e
310 310 310 310 311 311 311 310 310 310 312 315 317 317 319 322 332 334 335 335 336 335 336 340 339 338 339 341 340 339 337 334
308 308 308 309 309 308 308 307 307 307 307 308 310 315 317 321 321 332 334 333 334 337 335 335 337 337 340 340 339 339 338 336
306 305 305 305 305 306 306 307 307 306 307 308 308 310 313 318 321 326 334 334 335 333 333 332 335 334 337 341 339 340 339 338
303 303 302 302 302 302 303 304 305 304 304 305 306 307 309 310 317 319 321 324 333 332 332 329 330 336 335 337 340 340 339 338
301 299 299 298 298 299 300 301 301 302 302 302 302 303 305 308 309 314 318 321 327 332 332 331 329 333 334 334 337 340 336 335
297 296 296 296 297 298 298 299 300 300 300 300 300 300 302 303 308 308 311 317 320 328 331 333 333 332 334 334 332 336 336 330
297 297 296 296 296 296 296 296 295 297 299 299 298 298 298 300 301 308 309 309 315 320 324 331 332 333 332 333 335 336 334 333
293 292 291 291 291 291 291 291 293 294 294 296 297 295 295 296 298 304 310 310 308 312 318 323 333 332 331 332 333 334 334 328
292 291 290 290 289 289 289 289 289 292 292 294 296 297 295 295 299 302 307 311 311 310 311 316 325 332 332 329 330 331 332 325
291 290 289 289 289 289 289 288 289 290 290 292 294 296 297 297 298 301 306 310 312 313 312 311 314 321 331 330 329 329 330 330
290 289 289 290 289 289 288 289 289 289 290 291 292 294 296 297 299 302 304 307 311 313 314 313 312 313 321 328 328 328 328 330
289 289 289 289 289 289 289 289 289 289 289 290 291 293 294 296 299 301 304 306 313 316 316 316 315 316 323 322 327 327 329 330
289 289 289 289 289 288 288 289 289 288 288 289 290 292 294 295 299 301 305 310 315 315 312 315 316 321 322 324 322 320 317 320
288 289 289 288 288 288 288 288 288 288 288 288 289 290 292 293 295 299 303 308 310 311 313 316 317 325 322 319 319 320 324 327
288 289 288 287 288 287 287 288 288 288 288 288 288 289 289 291 293 294 297 302 306 309 314 316 319 321 323 319 318 323 323 327
287 287 287 286 287 286 287 288 289 289 289 289 289 289 289 288 291 294 296 300 301 302 307 310 313 318 319 320 323 324 324 327
285 285 285 284 284 286 287 288 289 290 290 291 291 290 291 291 291 291 296 297 295 300 301 300 300 303 304 302 310 308 311 316
283 283 283 283 283 284 284 284 285 287 289 291 292 292 291 290 291 292 294 298 294 298 297 299 301 300 300 301 301 305 301 305
282 282 282 282 283 283 283 283 283 283 284 285 288 291 293 292 292 292 289 291 293 292 292 295 297 294 298 300 300 300 300 302

GFSFLT1_850_thetae_126.txt.gz
Theta_e
306 307 308 308 308 308 308 309 309 309 310 311 311 310 311 314 316 318 326 333 334 330 334 332 336 335 337 336 339 337 335 334
304 305 305 306 307 306 306 306 307 307 307 307 308 308 308 307 307 311 318 324 332 334 334 331 328 333 334 336 337 338 339 337
302 303 303 304 303 304 305 305 306 306 306 307 307 308 308 308 307 306 309 318 322 329 332 334 322 327 329 334 334 334 335 334
300 300 300 300 301 302 302 303 304 305 305 305 306 306 307 307 307 307 307 309 318 320 328 332 333 326 323 331 332 332 330 331
298 297 297 296 297 298 299 301 301 302 302 303 303 304 305 307 306 307 308 308 309 316 320 325 332 333 332 332 329 327 331 331
295 295 295 295 295 294 295 296 297 299 300 301 301 301 303 304 305 305 307 308 308 308 316 320 325 331 332 326 324 324 331 332
293 293 293 293 293 294 296 296 298 298 298 298 298 298 299 300 303 304 305 306 308 308 308 313 320 325 330 332 331 330 329 332
292 291 291 291 291 292 292 292 294 294 295 296 295 295 295 297 298 300 302 304 306 307 308 308 312 321 326 328 331 330 328 328
291 290 290 290 290 290 289 289 291 291 291 292 292 292 293 295 297 297 299 301 304 306 309 310 309 310 317 321 327 331 331 330
291 290 289 289 289 289 288 289 289 289 289 290 291 291 292 294 296 297 298 300 302 306 309 311 311 310 309 313 318 327 330 329
290 289 289 289 288 288 288 289 289 288 289 289 289 291 292 293 294 296 297 299 302 304 308 311 312 312 312 311 312 319 328 328
289 289 289 289 288 288 288 289 289 288 288 288 288 289 291 292 293 295 297 299 302 305 311 313 314 315 315 313 312 314 319 326
288 289 289 289 289 289 288 290 289 288 288 288 288 288 290 291 292 294 296 300 302 306 311 313 312 313 315 315 314 317 319 321
288 289 290 290 290 289 290 289 289 289 288 288 287 287 288 289 291 293 295 298 301 304 308 310 310 311 313 317 315 318 324 323
288 289 290 291 290 290 289 289 289 290 289 288 287 287 287 288 289 292 294 295 297 300 301 304 308 310 312 316 319 319 319 319
285 285 286 287 287 286 286 288 290 291 290 290 288 288 288 289 289 291 294 295 295 295 296 298 302 309 309 312 315 317 317 319
283 283 284 284 284 283 283 283 284 287 291 291 291 292 292 291 291 294 293 293 294 295 295 293 296 298 300 303 305 306 308 308
282 282 282 283 282 282 282 282 282 283 284 285 289 291 293 292 294 294 293 294 294 293 294 293 292 294 300 301 300 301 301 301
282 282 282 282 282 282 282 282 282 282 283 283 284 284 284 285 287 289 290 292 293 293 292 292 292 293 295 297 299 299 299 297